| time (UTC) | temp F | wind direction | speed MPH | gust MPH | rain 1hr in | rain 24hr in | rain mn in | humidity % | barometer mb |
| 20260503200104 | 67 | 358 | 3.0 | 8.0 | 0.00 | 0.00 | 0.00 | 43 | 1012.4 |
| 20260503200005 | 67 | 355 | 4.0 | 8.0 | 0.00 | 0.00 | 0.00 | 42 | 1012.7 |
| 20260503195903 | 67 | 345 | 4.0 | 8.0 | 0.00 | 0.00 | 0.00 | 42 | 1012.4 |
| 20260503195815 | 67 | 349 | 4.0 | 8.0 | 0.00 | 0.00 | 0.00 | 42 | 1012.6 |
| 20260503195705 | 67 | 356 | 3.0 | 8.0 | 0.00 | 0.00 | 0.00 | 42 | 1012.3 |
| 20260503195617 | 67 | 358 | 2.0 | 8.0 | 0.00 | 0.00 | 0.00 | 43 | 1012.3 |
| 20260503195304 | 67 | 358 | 4.0 | 8.0 | 0.00 | 0.00 | 0.00 | 42 | 1012.6 |
| 20260503195203 | 67 | 353 | 3.0 | 8.0 | 0.00 | 0.00 | 0.00 | 42 | 1012.5 |
| 20260503195104 | 67 | 359 | 4.0 | 8.0 | 0.00 | 0.00 | 0.00 | 42 | 1012.6 |
| 20260503195010 | 67 | 1 | 3.0 | 7.0 | 0.00 | 0.00 | 0.00 | 41 | 1012.5 |
| 20260503194903 | 67 | 9 | 4.0 | 7.0 | 0.00 | 0.00 | 0.00 | 42 | 1012.6 |
| 20260503194803 | 67 | 10 | 3.0 | 7.0 | 0.00 | 0.00 | 0.00 | 41 | 1012.8 |
| 20260503194703 | 67 | 11 | 3.0 | 9.0 | 0.00 | 0.00 | 0.00 | 41 | 1012.5 |
| 20260503194603 | 67 | 11 | 3.0 | 9.0 | 0.00 | 0.00 | 0.00 | 42 | 1012.6 |
| 20260503194503 | 67 | 360 | 2.0 | 9.0 | 0.00 | 0.00 | 0.00 | 41 | 1012.4 |
| 20260503194404 | 67 | 357 | 4.0 | 9.0 | 0.00 | 0.00 | 0.00 | 42 | 1012.5 |
| 20260503194304 | 67 | 355 | 5.0 | 9.0 | 0.00 | 0.00 | 0.00 | 41 | 1012.6 |
| 20260503194103 | 67 | 345 | 4.0 | 8.0 | 0.00 | 0.00 | 0.00 | 42 | 1012.6 |
| 20260503194004 | 67 | 344 | 4.0 | 8.0 | 0.00 | 0.00 | 0.00 | 41 | 1012.6 |
| 20260503193904 | 68 | 342 | 4.0 | 8.0 | 0.00 | 0.00 | 0.00 | 41 | 1012.6 |
| 20260503193804 | 68 | 343 | 4.0 | 8.0 | 0.00 | 0.00 | 0.00 | 41 | 1012.6 |
| 20260503193706 | 68 | 356 | 5.0 | 8.0 | 0.00 | 0.00 | 0.00 | 40 | 1012.4 |
| 20260503193614 | 68 | 356 | 1.0 | 8.0 | 0.00 | 0.00 | 0.00 | 41 | 1012.7 |
| 20260503193504 | 67 | 354 | 2.0 | 9.0 | 0.00 | 0.00 | 0.00 | 42 | 1012.7 |
| 20260503193305 | 67 | 5 | 4.0 | 9.0 | 0.00 | 0.00 | 0.00 | 42 | 1012.6 |
| 20260503193205 | 67 | 358 | 5.0 | 9.0 | 0.00 | 0.00 | 0.00 | 42 | 1012.6 |
| 20260503193109 | 67 | 358 | 4.0 | 9.0 | 0.00 | 0.00 | 0.00 | 42 | 1012.6 |
| 20260503193004 | 67 | 3 | 6.0 | 9.0 | 0.00 | 0.00 | 0.00 | 42 | 1012.9 |
| 20260503192905 | 67 | 357 | 4.0 | 9.0 | 0.00 | 0.00 | 0.00 | 42 | 1012.7 |
| 20260503192818 | 67 | 355 | 6.0 | 9.0 | 0.00 | 0.00 | 0.00 | 42 | 1012.8 |
| 20260503192805 | 67 | 354 | 6.0 | 9.0 | 0.00 | 0.00 | 0.00 | 42 | 1012.8 |
| 20260503192705 | 67 | 358 | 4.0 | 9.0 | 0.00 | 0.00 | 0.00 | 41 | 1012.8 |
| 20260503192519 | 67 | 3 | 4.0 | 9.0 | 0.00 | 0.00 | 0.00 | 41 | 1012.7 |
| 20260503192504 | 67 | 2 | 4.0 | 9.0 | 0.00 | 0.00 | 0.00 | 41 | 1012.7 |
| 20260503192417 | 67 | 3 | 3.0 | 9.0 | 0.00 | 0.00 | 0.00 | 41 | 1012.7 |
| 20260503192404 | 67 | 4 | 3.0 | 9.0 | 0.00 | 0.00 | 0.00 | 41 | 1012.7 |
| 20260503192104 | 68 | 12 | 3.0 | 9.0 | 0.00 | 0.00 | 0.00 | 40 | 1012.9 |
| 20260503192004 | 69 | 13 | 2.0 | 7.0 | 0.00 | 0.00 | 0.00 | 40 | 1012.7 |
| 20260503191915 | 68 | 11 | 2.0 | 7.0 | 0.00 | 0.00 | 0.00 | 40 | 1012.8 |
| 20260503191905 | 68 | 10 | 2.0 | 7.0 | 0.00 | 0.00 | 0.00 | 40 | 1012.9 |
| 20260503191804 | 69 | 1 | 2.0 | 11.0 | 0.00 | 0.00 | 0.00 | 40 | 1012.8 |
| 20260503191604 | 68 | 353 | 1.0 | 14.0 | 0.00 | 0.00 | 0.00 | 42 | 1012.5 |
| 20260503191507 | 67 | 352 | 1.0 | 14.0 | 0.00 | 0.00 | 0.00 | 42 | 1012.9 |
| 20260503191404 | 66 | 352 | 4.0 | 14.0 | 0.00 | 0.00 | 0.00 | 42 | 1013.2 |
| 20260503191304 | 66 | 357 | 8.0 | 14.0 | 0.00 | 0.00 | 0.00 | 42 | 1013.1 |
| 20260503191205 | 66 | 3 | 7.0 | 14.0 | 0.00 | 0.00 | 0.00 | 41 | 1012.9 |
| 20260503191104 | 67 | 355 | 5.0 | 15.0 | 0.00 | 0.00 | 0.00 | 41 | 1012.8 |
| 20260503191006 | 68 | 344 | 2.0 | 15.0 | 0.00 | 0.00 | 0.00 | 42 | 1013.0 |
| 20260503190904 | 67 | 341 | 4.0 | 15.0 | 0.00 | 0.00 | 0.00 | 42 | 1012.9 |
| 20260503190804 | 67 | 333 | 3.0 | 15.0 | 0.00 | 0.00 | 0.00 | 43 | 1012.8 |
| 20260503190705 | 66 | 333 | 9.0 | 15.0 | 0.00 | 0.00 | 0.00 | 42 | 1013.2 |
| 20260503190604 | 66 | 332 | 6.0 | 14.0 | 0.00 | 0.00 | 0.00 | 42 | 1013.0 |
| 20260503190507 | 66 | 348 | 7.0 | 14.0 | 0.00 | 0.00 | 0.00 | 42 | 1013.1 |
| 20260503190404 | 66 | 344 | 8.0 | 11.0 | 0.00 | 0.00 | 0.00 | 41 | 1013.0 |
| 20260503190318 | 67 | 346 | 4.0 | 11.0 | 0.00 | 0.00 | 0.00 | 41 | 1013.1 |
| 20260503190304 | 67 | 348 | 4.0 | 11.0 | 0.00 | 0.00 | 0.00 | 42 | 1013.0 |
| 20260503190205 | 67 | 347 | 4.0 | 11.0 | 0.00 | 0.00 | 0.00 | 42 | 1013.0 |
| 20260503185905 | 67 | 357 | 4.0 | 11.0 | 0.00 | 0.00 | 0.00 | 41 | 1013.0 |
| 20260503185804 | 67 | 6 | 4.0 | 11.0 | 0.00 | 0.00 | 0.00 | 41 | 1013.1 |
| 20260503185703 | 67 | 7 | 3.0 | 11.0 | 0.00 | 0.00 | 0.00 | 42 | 1013.0 |
| 20260503185618 | 67 | 9 | 5.0 | 11.0 | 0.00 | 0.00 | 0.00 | 42 | 1013.2 |
| 20260503185603 | 67 | 10 | 5.0 | 11.0 | 0.00 | 0.00 | 0.00 | 42 | 1013.2 |
| 20260503185504 | 67 | 5 | 4.0 | 11.0 | 0.00 | 0.00 | 0.00 | 43 | 1013.3 |
| 20260503185415 | 66 | 11 | 7.0 | 11.0 | 0.00 | 0.00 | 0.00 | 42 | 1013.3 |
| 20260503185305 | 67 | 11 | 6.0 | 11.0 | 0.00 | 0.00 | 0.00 | 43 | 1013.0 |
| 20260503185105 | 67 | 20 | 5.0 | 8.0 | 0.00 | 0.00 | 0.00 | 42 | 1013.1 |
| 20260503185003 | 67 | 14 | 2.0 | 8.0 | 0.00 | 0.00 | 0.00 | 42 | 1013.0 |
| 20260503184903 | 67 | 360 | 4.0 | 8.0 | 0.00 | 0.00 | 0.00 | 42 | 1013.2 |
| 20260503184805 | 66 | 351 | 4.0 | 8.0 | 0.00 | 0.00 | 0.00 | 42 | 1013.1 |
| 20260503184709 | 66 | 343 | 5.0 | 8.0 | 0.00 | 0.00 | 0.00 | 43 | 1013.1 |
| 20260503184603 | 66 | 343 | 7.0 | 8.0 | 0.00 | 0.00 | 0.00 | 41 | 1013.2 |
| 20260503184505 | 67 | 354 | 5.0 | 8.0 | 0.00 | 0.00 | 0.00 | 41 | 1013.4 |
| 20260503184404 | 68 | 358 | 2.0 | 7.0 | 0.00 | 0.00 | 0.00 | 41 | 1013.2 |
| 20260503184305 | 67 | 357 | 3.0 | 7.0 | 0.00 | 0.00 | 0.00 | 42 | 1013.2 |
| 20260503184204 | 68 | 358 | 4.0 | 9.0 | 0.00 | 0.00 | 0.00 | 41 | 1013.3 |
| 20260503184104 | 68 | 356 | 2.0 | 9.0 | 0.00 | 0.00 | 0.00 | 42 | 1013.2 |
| 20260503184004 | 68 | 344 | 2.0 | 9.0 | 0.00 | 0.00 | 0.00 | 43 | 1013.3 |
| 20260503183919 | 67 | 350 | 3.0 | 9.0 | 0.00 | 0.00 | 0.00 | 43 | 1013.3 |
| 20260503183904 | 67 | 351 | 3.0 | 9.0 | 0.00 | 0.00 | 0.00 | 43 | 1013.3 |
| 20260503183804 | 67 | 357 | 4.0 | 9.0 | 0.00 | 0.00 | 0.00 | 42 | 1013.2 |
| 20260503183603 | 67 | 14 | 2.0 | 11.0 | 0.00 | 0.00 | 0.00 | 43 | 1013.3 |
| 20260503183504 | 67 | 22 | 4.0 | 11.0 | 0.00 | 0.00 | 0.00 | 43 | 1013.4 |
| 20260503183405 | 67 | 10 | 2.0 | 11.0 | 0.00 | 0.00 | 0.00 | 43 | 1013.1 |
| 20260503183303 | 67 | 353 | 2.0 | 11.0 | 0.00 | 0.00 | 0.00 | 43 | 1013.3 |
| 20260503183204 | 67 | 342 | 4.0 | 11.0 | 0.00 | 0.00 | 0.00 | 43 | 1013.3 |
| 20260503183104 | 67 | 334 | 4.0 | 11.0 | 0.00 | 0.00 | 0.00 | 42 | 1013.3 |
| 20260503183006 | 66 | 330 | 5.0 | 11.0 | 0.00 | 0.00 | 0.00 | 43 | 1013.4 |
| 20260503182904 | 66 | 330 | 6.0 | 11.0 | 0.00 | 0.00 | 0.00 | 43 | 1013.4 |
| 20260503182704 | 66 | 338 | 5.0 | 11.0 | 0.00 | 0.00 | 0.00 | 43 | 1013.6 |
| 20260503182605 | 67 | 341 | 3.0 | 11.0 | 0.00 | 0.00 | 0.00 | 43 | 1013.8 |
| 20260503182503 | 66 | 357 | 3.0 | 11.0 | 0.00 | 0.00 | 0.00 | 43 | 1013.6 |
| 20260503182404 | 66 | 4 | 6.0 | 11.0 | 0.00 | 0.00 | 0.00 | 43 | 1013.7 |
| 20260503182205 | 66 | 6 | 6.0 | 13.0 | 0.00 | 0.00 | 0.00 | 43 | 1013.6 |
| 20260503182103 | 66 | 9 | 6.0 | 13.0 | 0.00 | 0.00 | 0.00 | 43 | 1013.6 |
| 20260503182007 | 66 | 350 | 6.0 | 13.0 | 0.00 | 0.00 | 0.00 | 43 | 1013.6 |
| 20260503181904 | 66 | 341 | 8.0 | 13.0 | 0.00 | 0.00 | 0.00 | 43 | 1013.7 |
| 20260503181804 | 67 | 348 | 2.0 | 11.0 | 0.00 | 0.00 | 0.00 | 44 | 1013.7 |
| 20260503181707 | 66 | 344 | 3.0 | 11.0 | 0.00 | 0.00 | 0.00 | 44 | 1013.6 |
| 20260503181604 | 65 | 344 | 5.0 | 11.0 | 0.00 | 0.00 | 0.00 | 44 | 1013.6 |
| 20260503181505 | 67 | 356 | 4.0 | 11.0 | 0.00 | 0.00 | 0.00 | 43 | 1013.6 |
| 20260503181408 | 67 | 1 | 4.0 | 11.0 | 0.00 | 0.00 | 0.00 | 43 | 1013.8 |
| 20260503181304 | 67 | 6 | 4.0 | 11.0 | 0.00 | 0.00 | 0.00 | 44 | 1013.7 |
| 20260503181205 | 67 | 357 | 2.0 | 11.0 | 0.00 | 0.00 | 0.00 | 44 | 1013.7 |
| 20260503181103 | 66 | 356 | 4.0 | 11.0 | 0.00 | 0.00 | 0.00 | 43 | 1013.7 |
| 20260503181005 | 66 | 353 | 5.0 | 11.0 | 0.00 | 0.00 | 0.00 | 43 | 1013.7 |
| 20260503180905 | 66 | 353 | 5.0 | 11.0 | 0.00 | 0.00 | 0.00 | 43 | 1013.6 |
| 20260503180805 | 66 | 344 | 6.0 | 11.0 | 0.00 | 0.00 | 0.00 | 44 | 1014.0 |
| 20260503180703 | 66 | 346 | 6.0 | 11.0 | 0.00 | 0.00 | 0.00 | 43 | 1013.9 |
| 20260503180603 | 67 | 340 | 4.0 | 11.0 | 0.00 | 0.00 | 0.00 | 43 | 1014.0 |
| 20260503180503 | 66 | 339 | 4.0 | 11.0 | 0.00 | 0.00 | 0.00 | 43 | 1014.2 |
| 20260503180404 | 66 | 336 | 6.0 | 11.0 | 0.00 | 0.00 | 0.00 | 42 | 1014.0 |
| 20260503180305 | 67 | 345 | 2.0 | 8.0 | 0.00 | 0.00 | 0.00 | 43 | 1014.0 |
| 20260503180203 | 67 | 344 | 4.0 | 8.0 | 0.00 | 0.00 | 0.00 | 43 | 1014.0 |
| 20260503180104 | 67 | 354 | 3.0 | 8.0 | 0.00 | 0.00 | 0.00 | 44 | 1014.0 |
| 20260503180004 | 67 | 354 | 2.0 | 8.0 | 0.00 | 0.00 | 0.00 | 44 | 1014.0 |
| 20260503175905 | 67 | 340 | 4.0 | 8.0 | 0.00 | 0.00 | 0.00 | 43 | 1014.0 |
| 20260503175705 | 66 | 345 | 3.0 | 8.0 | 0.00 | 0.00 | 0.00 | 45 | 1014.1 |
| 20260503175603 | 66 | 345 | 3.0 | 8.0 | 0.00 | 0.00 | 0.00 | 45 | 1013.9 |
| 20260503175503 | 66 | 351 | 4.0 | 11.0 | 0.00 | 0.00 | 0.00 | 44 | 1014.0 |
| 20260503175304 | 67 | 357 | 3.0 | 11.0 | 0.00 | 0.00 | 0.00 | 44 | 1014.1 |
| 20260503175218 | 67 | 1 | 2.0 | 11.0 | 0.00 | 0.00 | 0.00 | 45 | 1014.3 |
| 20260503175205 | 67 | 2 | 2.0 | 11.0 | 0.00 | 0.00 | 0.00 | 45 | 1014.3 |
| 20260503175104 | 65 | 3 | 5.0 | 11.0 | 0.00 | 0.00 | 0.00 | 46 | 1014.2 |
| 20260503174903 | 65 | 10 | 4.0 | 9.0 | 0.00 | 0.00 | 0.00 | 45 | 1014.2 |
| 20260503174804 | 65 | 7 | 5.0 | 9.0 | 0.00 | 0.00 | 0.00 | 45 | 1014.1 |
| 20260503174704 | 66 | 14 | 2.0 | 9.0 | 0.00 | 0.00 | 0.00 | 44 | 1014.2 |
| 20260503174604 | 65 | 20 | 4.0 | 11.0 | 0.00 | 0.00 | 0.00 | 44 | 1014.2 |
| 20260503174504 | 66 | 9 | 4.0 | 16.0 | 0.00 | 0.00 | 0.00 | 44 | 1014.2 |
| 20260503174403 | 66 | 350 | 3.0 | 16.0 | 0.00 | 0.00 | 0.00 | 44 | 1014.3 |
| 20260503174303 | 65 | 357 | 2.0 | 16.0 | 0.00 | 0.00 | 0.00 | 45 | 1014.3 |
| 20260503174204 | 65 | 351 | 4.0 | 16.0 | 0.00 | 0.00 | 0.00 | 45 | 1014.2 |
| 20260503174104 | 64 | 345 | 6.0 | 16.0 | 0.00 | 0.00 | 0.00 | 45 | 1014.3 |
| 20260503174005 | 64 | 340 | 9.0 | 16.0 | 0.00 | 0.00 | 0.00 | 45 | 1014.5 |
| 20260503173904 | 65 | 354 | 4.0 | 13.0 | 0.00 | 0.00 | 0.00 | 44 | 1014.4 |
| 20260503173805 | 65 | 341 | 6.0 | 14.0 | 0.00 | 0.00 | 0.00 | 45 | 1014.3 |
| 20260503173705 | 65 | 347 | 3.0 | 14.0 | 0.00 | 0.00 | 0.00 | 45 | 1014.5 |
| 20260503173604 | 65 | 340 | 4.0 | 14.0 | 0.00 | 0.00 | 0.00 | 45 | 1014.4 |
| 20260503173505 | 64 | 339 | 8.0 | 14.0 | 0.00 | 0.00 | 0.00 | 46 | 1014.5 |
| 20260503173404 | 64 | 337 | 7.0 | 14.0 | 0.00 | 0.00 | 0.00 | 46 | 1014.4 |
| 20260503173303 | 65 | 354 | 7.0 | 14.0 | 0.00 | 0.00 | 0.00 | 45 | 1014.6 |
| 20260503173203 | 65 | 354 | 6.0 | 11.0 | 0.00 | 0.00 | 0.00 | 44 | 1014.4 |
| 20260503173103 | 65 | 11 | 4.0 | 13.0 | 0.00 | 0.00 | 0.00 | 45 | 1014.5 |
| 20260503173004 | 65 | 18 | 2.0 | 14.0 | 0.00 | 0.00 | 0.00 | 45 | 1014.4 |
| 20260503172903 | 64 | 11 | 4.0 | 14.0 | 0.00 | 0.00 | 0.00 | 46 | 1014.6 |
| 20260503172803 | 64 | 3 | 6.0 | 14.0 | 0.00 | 0.00 | 0.00 | 45 | 1014.3 |
| 20260503172704 | 64 | 355 | 7.0 | 14.0 | 0.00 | 0.00 | 0.00 | 46 | 1014.7 |
| 20260503172605 | 64 | 349 | 8.0 | 14.0 | 0.00 | 0.00 | 0.00 | 46 | 1014.4 |
| 20260503172504 | 64 | 342 | 6.0 | 14.0 | 0.00 | 0.00 | 0.00 | 45 | 1014.6 |
| 20260503172405 | 64 | 348 | 4.0 | 14.0 | 0.00 | 0.00 | 0.00 | 46 | 1014.6 |
| 20260503172317 | 64 | 354 | 8.0 | 14.0 | 0.00 | 0.00 | 0.00 | 46 | 1014.6 |
| 20260503172305 | 64 | 356 | 6.0 | 13.0 | 0.00 | 0.00 | 0.00 | 46 | 1014.7 |
| 20260503172205 | 64 | 3 | 4.0 | 11.0 | 0.00 | 0.00 | 0.00 | 46 | 1014.6 |
| 20260503172003 | 65 | 19 | 4.0 | 9.0 | 0.00 | 0.00 | 0.00 | 46 | 1014.6 |
| 20260503171904 | 65 | 15 | 4.0 | 11.0 | 0.00 | 0.00 | 0.00 | 46 | 1014.4 |
| 20260503171804 | 65 | 19 | 5.0 | 11.0 | 0.00 | 0.00 | 0.00 | 46 | 1014.5 |
| 20260503171705 | 66 | 22 | 3.0 | 11.0 | 0.00 | 0.00 | 0.00 | 46 | 1014.5 |
| 20260503171605 | 66 | 10 | 2.0 | 11.0 | 0.00 | 0.00 | 0.00 | 47 | 1014.6 |
| 20260503171516 | 65 | 18 | 2.0 | 11.0 | 0.00 | 0.00 | 0.00 | 47 | 1014.7 |
| 20260503171503 | 65 | 18 | 4.0 | 11.0 | 0.00 | 0.00 | 0.00 | 47 | 1014.7 |
| 20260503171403 | 65 | 23 | 5.0 | 11.0 | 0.00 | 0.00 | 0.00 | 47 | 1014.6 |
| 20260503171205 | 65 | 17 | 1.0 | 11.0 | 0.00 | 0.00 | 0.00 | 47 | 1014.7 |
| 20260503171103 | 64 | 20 | 4.0 | 11.0 | 0.00 | 0.00 | 0.00 | 48 | 1014.8 |
| 20260503171005 | 64 | 10 | 4.0 | 16.0 | 0.00 | 0.00 | 0.00 | 48 | 1014.7 |
| 20260503170905 | 64 | 346 | 5.0 | 16.0 | 0.00 | 0.00 | 0.00 | 48 | 1015.0 |
| 20260503170806 | 64 | 350 | 4.0 | 16.0 | 0.00 | 0.00 | 0.00 | 48 | 1014.9 |
| 20260503170705 | 63 | 358 | 7.0 | 16.0 | 0.00 | 0.00 | 0.00 | 47 | 1015.0 |
| 20260503170603 | 64 | 6 | 5.0 | 16.0 | 0.00 | 0.00 | 0.00 | 47 | 1014.9 |
| 20260503170516 | 64 | 353 | 7.0 | 16.0 | 0.00 | 0.00 | 0.00 | 47 | 1014.9 |
| 20260503170503 | 64 | 359 | 7.0 | 16.0 | 0.00 | 0.00 | 0.00 | 47 | 1014.9 |
| 20260503170415 | 64 | 7 | 2.0 | 14.0 | 0.00 | 0.00 | 0.00 | 47 | 1014.9 |
| 20260503170403 | 64 | 6 | 2.0 | 14.0 | 0.00 | 0.00 | 0.00 | 47 | 1014.9 |
| 20260503170104 | 63 | 338 | 6.0 | 14.0 | 0.00 | 0.00 | 0.00 | 46 | 1015.0 |
| 20260503160205 | 62 | 346 | 2.0 | 11.0 | 0.00 | 0.00 | 0.00 | 51 | 1016.5 |
| 20260503160105 | 62 | 339 | 3.0 | 11.0 | 0.00 | 0.00 | 0.00 | 52 | 1016.6 |
| 20260503151003 | 59 | 332 | 5.0 | 11.0 | 0.00 | 0.00 | 0.00 | 55 | 1018.1 |
| 20260503150903 | 59 | 327 | 6.0 | 11.0 | 0.00 | 0.00 | 0.00 | 54 | 1018.2 |
| 20260503150804 | 58 | 321 | 6.0 | 11.0 | 0.00 | 0.00 | 0.00 | 54 | 1018.1 |
| 20260503150721 | 58 | 324 | 6.0 | 11.0 | 0.00 | 0.00 | 0.00 | 55 | 1018.2 |
| 20260503150703 | 58 | 329 | 5.0 | 18.0 | 0.00 | 0.00 | 0.00 | 55 | 1018.1 |
| 20260503150603 | 58 | 340 | 5.0 | 18.0 | 0.00 | 0.00 | 0.00 | 55 | 1018.1 |
| 20260503150417 | 58 | 358 | 8.0 | 18.0 | 0.00 | 0.00 | 0.00 | 55 | 1018.3 |
| 20260503150405 | 58 | 2 | 8.0 | 18.0 | 0.00 | 0.00 | 0.00 | 55 | 1018.3 |
| 20260503150303 | 58 | 15 | 6.0 | 18.0 | 0.00 | 0.00 | 0.00 | 55 | 1018.4 |
| 20260503150105 | 58 | 360 | 6.0 | 13.0 | 0.00 | 0.00 | 0.00 | 55 | 1018.1 |
| 20260503140303 | 57 | 360 | 3.0 | 8.0 | 0.00 | 0.00 | 0.00 | 59 | 1019.8 |
| 20260503140205 | 57 | 2 | 2.0 | 8.0 | 0.00 | 0.00 | 0.00 | 59 | 1019.6 |
| 20260503140113 | 56 | 359 | 4.0 | 8.0 | 0.00 | 0.00 | 0.00 | 59 | 1019.8 |
| 20260503131404 | 53 | 24 | 4.0 | 11.0 | 0.00 | 0.00 | 0.00 | 69 | 1020.2 |
| 20260503131303 | 53 | 28 | 6.0 | 11.0 | 0.00 | 0.00 | 0.00 | 69 | 1020.3 |
| 20260503131203 | 53 | 18 | 5.0 | 11.0 | 0.00 | 0.00 | 0.00 | 68 | 1020.5 |
| 20260503131103 | 53 | 354 | 6.0 | 11.0 | 0.00 | 0.00 | 0.00 | 68 | 1020.2 |
| 20260503131017 | 53 | 348 | 6.0 | 11.0 | 0.00 | 0.00 | 0.00 | 68 | 1020.2 |
| 20260503131004 | 53 | 347 | 4.0 | 11.0 | 0.00 | 0.00 | 0.00 | 68 | 1020.3 |
| 20260503130903 | 53 | 338 | 3.0 | 11.0 | 0.00 | 0.00 | 0.00 | 68 | 1020.3 |
| 20260503130703 | 53 | 334 | 5.0 | 11.0 | 0.00 | 0.00 | 0.00 | 67 | 1020.1 |
| 20260503130603 | 53 | 342 | 5.0 | 11.0 | 0.00 | 0.00 | 0.00 | 67 | 1020.3 |
| 20260503130503 | 53 | 355 | 4.0 | 9.0 | 0.00 | 0.00 | 0.00 | 68 | 1020.2 |
| 20260503130403 | 53 | 9 | 5.0 | 9.0 | 0.00 | 0.00 | 0.00 | 68 | 1020.1 |
| 20260503130305 | 53 | 13 | 4.0 | 9.0 | 0.00 | 0.00 | 0.00 | 68 | 1020.3 |
| 20260503130204 | 53 | 7 | 4.0 | 11.0 | 0.00 | 0.00 | 0.00 | 68 | 1020.1 |
| 20260503130105 | 53 | 1 | 5.0 | 11.0 | 0.00 | 0.00 | 0.00 | 67 | 1020.2 |
| 20260503120103 | 47 | 3 | 2.0 | 8.0 | 0.00 | 0.00 | 0.00 | 79 | 1019.6 |
| 20260503110804 | 45 | 49 | 1.0 | 4.0 | 0.00 | 0.00 | 0.00 | 83 | 1019.9 |
| 20260503110703 | 45 | 50 | 1.0 | 4.0 | 0.00 | 0.00 | 0.00 | 83 | 1019.8 |
| 20260503110606 | 45 | 52 | 1.0 | 4.0 | 0.00 | 0.00 | 0.00 | 83 | 1019.9 |
| 20260503110516 | 45 | 52 | 0.0 | 4.0 | 0.00 | 0.00 | 0.00 | 83 | 1019.9 |
| 20260503110504 | 45 | 55 | 0.0 | 4.0 | 0.00 | 0.00 | 0.00 | 83 | 1019.9 |
| 20260503110207 | 44 | 65 | 0.0 | 4.0 | 0.00 | 0.00 | 0.00 | 83 | 1019.8 |
| 20260503110104 | 44 | 54 | 0.0 | 4.0 | 0.00 | 0.00 | 0.00 | 83 | 1019.7 |
| 20260503100205 | 46 | 32 | 2.0 | 6.0 | 0.00 | 0.00 | 0.00 | 77 | 1020.1 |
| 20260503100103 | 46 | 24 | 2.0 | 6.0 | 0.00 | 0.00 | 0.00 | 77 | 1019.9 |
| 20260503090505 | 46 | 0 | 0.0 | 0.0 | 0.00 | 0.00 | 0.00 | 84 | 1020.2 |
| 20260503090404 | 46 | 0 | 0.0 | 0.0 | 0.00 | 0.00 | 0.00 | 84 | 1020.5 |
| 20260503090303 | 46 | 0 | 0.0 | 0.0 | 0.00 | 0.00 | 0.00 | 84 | 1020.5 |
| 20260503090205 | 46 | 0 | 0.0 | 0.0 | 0.00 | 0.00 | 0.00 | 84 | 1020.3 |
| 20260503081504 | 46 | 0 | 0.0 | 0.0 | 0.00 | 0.00 | 0.00 | 83 | 1021.1 |
| 20260503081404 | 46 | 67 | 0.0 | 2.0 | 0.00 | 0.00 | 0.00 | 83 | 1021.2 |
| 20260503081314 | 46 | 67 | 0.0 | 2.0 | 0.00 | 0.00 | 0.00 | 83 | 1021.0 |
| 20260503081217 | 46 | 63 | 0.0 | 2.0 | 0.00 | 0.00 | 0.00 | 83 | 1021.5 |
| 20260503081205 | 46 | 61 | 0.0 | 2.0 | 0.00 | 0.00 | 0.00 | 83 | 1021.5 |
| 20260503081116 | 46 | 58 | 0.0 | 2.0 | 0.00 | 0.00 | 0.00 | 83 | 1021.2 |
| 20260503080913 | 46 | 61 | 1.0 | 2.0 | 0.00 | 0.00 | 0.00 | 83 | 1021.2 |
| 20260503080805 | 46 | 61 | 1.0 | 2.0 | 0.00 | 0.00 | 0.00 | 83 | 1021.1 |
| 20260503080605 | 46 | 59 | 0.0 | 4.0 | 0.00 | 0.00 | 0.00 | 83 | 1021.3 |
| 20260503080504 | 46 | 65 | 1.0 | 4.0 | 0.00 | 0.00 | 0.00 | 83 | 1021.2 |
| 20260503080405 | 46 | 67 | 1.0 | 4.0 | 0.00 | 0.00 | 0.00 | 82 | 1021.5 |
| 20260503080304 | 46 | 67 | 1.0 | 4.0 | 0.00 | 0.00 | 0.00 | 82 | 1021.4 |
| 20260503080205 | 46 | 71 | 2.0 | 4.0 | 0.00 | 0.00 | 0.00 | 82 | 1021.4 |
| 20260503080117 | 46 | 84 | 1.0 | 4.0 | 0.00 | 0.00 | 0.00 | 82 | 1021.5 |
| 20260503080104 | 46 | 83 | 1.0 | 4.0 | 0.00 | 0.00 | 0.00 | 82 | 1021.5 |
| 20260503072904 | 47 | 66 | 2.0 | 4.0 | 0.00 | 0.00 | 0.00 | 78 | 1021.7 |
| 20260503072805 | 46 | 64 | 2.0 | 4.0 | 0.00 | 0.00 | 0.00 | 78 | 1021.7 |
| 20260503072704 | 46 | 69 | 2.0 | 4.0 | 0.00 | 0.00 | 0.00 | 78 | 1021.8 |
| 20260503072604 | 47 | 63 | 2.0 | 4.0 | 0.00 | 0.00 | 0.00 | 78 | 1021.9 |
| 20260503072504 | 47 | 58 | 2.0 | 4.0 | 0.00 | 0.00 | 0.00 | 78 | 1021.6 |
| 20260503072405 | 47 | 54 | 2.0 | 4.0 | 0.00 | 0.00 | 0.00 | 78 | 1021.8 |
| 20260503072306 | 47 | 61 | 2.0 | 4.0 | 0.00 | 0.00 | 0.00 | 77 | 1021.8 |
| 20260503072204 | 47 | 58 | 2.0 | 4.0 | 0.00 | 0.00 | 0.00 | 77 | 1021.8 |
| 20260503072103 | 47 | 63 | 2.0 | 6.0 | 0.00 | 0.00 | 0.00 | 77 | 1021.7 |
| 20260503072004 | 47 | 65 | 2.0 | 6.0 | 0.00 | 0.00 | 0.00 | 77 | 1022.1 |
| 20260503071905 | 47 | 64 | 2.0 | 6.0 | 0.00 | 0.00 | 0.00 | 77 | 1021.9 |
| 20260503071805 | 47 | 55 | 1.0 | 6.0 | 0.00 | 0.00 | 0.00 | 77 | 1021.8 |
| 20260503071704 | 47 | 56 | 2.0 | 6.0 | 0.00 | 0.00 | 0.00 | 76 | 1021.8 |
| 20260503071603 | 47 | 46 | 2.0 | 6.0 | 0.00 | 0.00 | 0.00 | 76 | 1021.6 |
| 20260503071503 | 47 | 50 | 2.0 | 4.0 | 0.00 | 0.00 | 0.00 | 76 | 1021.8 |
| 20260503071403 | 47 | 50 | 0.0 | 4.0 | 0.00 | 0.00 | 0.00 | 76 | 1022.2 |
| 20260503071305 | 47 | 49 | 2.0 | 4.0 | 0.00 | 0.00 | 0.00 | 76 | 1022.0 |
| 20260503071204 | 47 | 48 | 2.0 | 4.0 | 0.00 | 0.00 | 0.00 | 75 | 1022.0 |
| 20260503071103 | 47 | 60 | 2.0 | 4.0 | 0.00 | 0.00 | 0.00 | 75 | 1022.1 |
| 20260503071003 | 47 | 53 | 3.0 | 4.0 | 0.00 | 0.00 | 0.00 | 75 | 1022.1 |
| 20260503070907 | 47 | 53 | 3.0 | 4.0 | 0.00 | 0.00 | 0.00 | 75 | 1022.1 |
| 20260503070803 | 47 | 62 | 2.0 | 4.0 | 0.00 | 0.00 | 0.00 | 75 | 1022.1 |
| 20260503070703 | 47 | 67 | 2.0 | 4.0 | 0.00 | 0.00 | 0.00 | 74 | 1022.2 |
| 20260503070604 | 47 | 60 | 2.0 | 4.0 | 0.00 | 0.00 | 0.00 | 74 | 1022.0 |
| 20260503070504 | 47 | 54 | 3.0 | 4.0 | 0.00 | 0.00 | 0.00 | 74 | 1022.1 |
| 20260503070408 | 47 | 65 | 2.0 | 6.0 | 0.00 | 0.00 | 0.00 | 74 | 1022.0 |
| 20260503070303 | 47 | 66 | 2.0 | 6.0 | 0.00 | 0.00 | 0.00 | 74 | 1022.3 |
| 20260503070214 | 47 | 67 | 1.0 | 6.0 | 0.00 | 0.00 | 0.00 | 74 | 1022.1 |
| 20260503070103 | 47 | 67 | 2.0 | 6.0 | 0.00 | 0.00 | 0.00 | 74 | 1022.1 |
| 20260503060303 | 49 | 55 | 2.0 | 4.0 | 0.00 | 0.00 | 0.00 | 68 | 1023.1 |
| 20260503060214 | 49 | 54 | 1.0 | 4.0 | 0.00 | 0.00 | 0.00 | 68 | 1023.0 |
| 20260503060105 | 49 | 57 | 0.0 | 4.0 | 0.00 | 0.00 | 0.00 | 68 | 1023.0 |
| 20260503055106 | 49 | 80 | 0.0 | 4.0 | 0.00 | 0.00 | 0.00 | 67 | 1022.9 |
| 20260503055004 | 50 | 77 | 1.0 | 4.0 | 0.00 | 0.00 | 0.00 | 67 | 1023.1 |
| 20260503054905 | 50 | 65 | 2.0 | 4.0 | 0.00 | 0.00 | 0.00 | 67 | 1022.9 |
| 20260503054804 | 50 | 64 | 2.0 | 4.0 | 0.00 | 0.00 | 0.00 | 66 | 1023.2 |
| 20260503054704 | 49 | 63 | 3.0 | 4.0 | 0.00 | 0.00 | 0.00 | 67 | 1023.1 |
| 20260503054604 | 49 | 71 | 1.0 | 4.0 | 0.00 | 0.00 | 0.00 | 67 | 1023.2 |
| 20260503054504 | 49 | 66 | 2.0 | 4.0 | 0.00 | 0.00 | 0.00 | 67 | 1023.0 |
| 20260503054405 | 49 | 78 | 2.0 | 4.0 | 0.00 | 0.00 | 0.00 | 67 | 1023.1 |
| 20260503054305 | 50 | 74 | 2.0 | 4.0 | 0.00 | 0.00 | 0.00 | 67 | 1022.9 |
| 20260503054217 | 50 | 66 | 2.0 | 4.0 | 0.00 | 0.00 | 0.00 | 67 | 1023.3 |
| 20260503054204 | 50 | 64 | 1.0 | 4.0 | 0.00 | 0.00 | 0.00 | 67 | 1023.2 |
| 20260503053904 | 50 | 78 | 2.0 | 4.0 | 0.00 | 0.00 | 0.00 | 66 | 1023.2 |
| 20260503053805 | 50 | 77 | 1.0 | 4.0 | 0.00 | 0.00 | 0.00 | 67 | 1023.0 |
| 20260503053703 | 50 | 83 | 2.0 | 4.0 | 0.00 | 0.00 | 0.00 | 66 | 1023.0 |
| 20260503053618 | 50 | 88 | 2.0 | 4.0 | 0.00 | 0.00 | 0.00 | 67 | 1023.1 |
| 20260503053605 | 50 | 89 | 2.0 | 4.0 | 0.00 | 0.00 | 0.00 | 67 | 1023.1 |
| 20260503053504 | 50 | 82 | 2.0 | 4.0 | 0.00 | 0.00 | 0.00 | 67 | 1023.2 |
| 20260503053304 | 49 | 78 | 1.0 | 6.0 | 0.00 | 0.00 | 0.00 | 67 | 1023.2 |
| 20260503053203 | 50 | 77 | 2.0 | 6.0 | 0.00 | 0.00 | 0.00 | 67 | 1022.9 |
| 20260503053105 | 49 | 79 | 2.0 | 6.0 | 0.00 | 0.00 | 0.00 | 67 | 1023.4 |
| 20260503053004 | 49 | 79 | 2.0 | 6.0 | 0.00 | 0.00 | 0.00 | 68 | 1023.4 |
| 20260503052904 | 49 | 87 | 2.0 | 4.0 | 0.00 | 0.00 | 0.00 | 68 | 1023.3 |
| 20260503052803 | 49 | 91 | 1.0 | 4.0 | 0.00 | 0.00 | 0.00 | 68 | 1023.4 |
| 20260503052705 | 49 | 93 | 1.0 | 4.0 | 0.00 | 0.00 | 0.00 | 68 | 1023.4 |
| 20260503052604 | 49 | 85 | 1.0 | 6.0 | 0.00 | 0.00 | 0.00 | 69 | 1023.2 |
| 20260503052513 | 49 | 91 | 2.0 | 6.0 | 0.00 | 0.00 | 0.00 | 69 | 1023.4 |
| 20260503052503 | 49 | 90 | 2.0 | 6.0 | 0.00 | 0.00 | 0.00 | 69 | 1023.4 |
| 20260503052403 | 49 | 85 | 1.0 | 6.0 | 0.00 | 0.00 | 0.00 | 69 | 1023.4 |
| 20260503052204 | 49 | 75 | 2.0 | 6.0 | 0.00 | 0.00 | 0.00 | 69 | 1023.5 |
| 20260503052117 | 49 | 76 | 1.0 | 6.0 | 0.00 | 0.00 | 0.00 | 70 | 1023.4 |
| 20260503052103 | 49 | 70 | 1.0 | 6.0 | 0.00 | 0.00 | 0.00 | 70 | 1023.4 |
| 20260503052004 | 49 | 57 | 0.0 | 2.0 | 0.00 | 0.00 | 0.00 | 70 | 1023.4 |
| 20260503051803 | 49 | 70 | 1.0 | 2.0 | 0.00 | 0.00 | 0.00 | 70 | 1023.5 |
| 20260503051703 | 49 | 69 | 0.0 | 2.0 | 0.00 | 0.00 | 0.00 | 70 | 1023.5 |
| 20260503051603 | 49 | 64 | 0.0 | 2.0 | 0.00 | 0.00 | 0.00 | 70 | 1023.4 |
| 20260503051505 | 49 | 55 | 0.0 | 4.0 | 0.00 | 0.00 | 0.00 | 70 | 1023.4 |
| 20260503051403 | 49 | 54 | 0.0 | 4.0 | 0.00 | 0.00 | 0.00 | 70 | 1023.3 |
| 20260503051303 | 49 | 51 | 0.0 | 4.0 | 0.00 | 0.00 | 0.00 | 70 | 1023.7 |
| 20260503051205 | 49 | 51 | 1.0 | 4.0 | 0.00 | 0.00 | 0.00 | 69 | 1023.5 |
| 20260503051118 | 49 | 53 | 0.0 | 4.0 | 0.00 | 0.00 | 0.00 | 70 | 1023.5 |
| 20260503051103 | 49 | 55 | 2.0 | 4.0 | 0.00 | 0.00 | 0.00 | 69 | 1023.8 |
| 20260503051003 | 49 | 62 | 1.0 | 4.0 | 0.00 | 0.00 | 0.00 | 70 | 1023.4 |
| 20260503050915 | 49 | 65 | 2.0 | 4.0 | 0.00 | 0.00 | 0.00 | 70 | 1023.6 |
| 20260503050803 | 49 | 73 | 1.0 | 4.0 | 0.00 | 0.00 | 0.00 | 70 | 1023.5 |
| 20260503050603 | 49 | 81 | 1.0 | 2.0 | 0.00 | 0.00 | 0.00 | 70 | 1023.5 |
| 20260503050503 | 49 | 78 | 0.0 | 4.0 | 0.00 | 0.00 | 0.00 | 70 | 1023.6 |
| 20260503050403 | 49 | 72 | 1.0 | 4.0 | 0.00 | 0.00 | 0.00 | 70 | 1023.5 |
| 20260503050303 | 49 | 65 | 2.0 | 4.0 | 0.00 | 0.00 | 0.00 | 70 | 1023.7 |
| 20260503050203 | 49 | 64 | 1.0 | 4.0 | 0.00 | 0.00 | 0.00 | 69 | 1023.6 |
| 20260503050006 | 49 | 59 | 2.0 | 4.0 | 0.00 | 0.00 | 0.00 | 69 | 1023.4 |
| 20260503045905 | 49 | 63 | 1.0 | 4.0 | 0.00 | 0.00 | 0.00 | 70 | 1023.7 |
| 20260503045804 | 49 | 73 | 1.0 | 2.0 | 0.00 | 0.00 | 0.00 | 70 | 1023.7 |
| 20260503045704 | 49 | 72 | 1.0 | 2.0 | 0.00 | 0.00 | 0.00 | 70 | 1023.7 |
| 20260503045605 | 49 | 84 | 1.0 | 2.0 | 0.00 | 0.00 | 0.00 | 70 | 1023.5 |
| 20260503045504 | 49 | 84 | 1.0 | 2.0 | 0.00 | 0.00 | 0.00 | 70 | 1023.7 |
| 20260503045404 | 49 | 69 | 0.0 | 2.0 | 0.00 | 0.00 | 0.00 | 70 | 1023.6 |
| 20260503045307 | 49 | 65 | 0.0 | 2.0 | 0.00 | 0.00 | 0.00 | 70 | 1023.7 |
| 20260503045204 | 49 | 64 | 1.0 | 2.0 | 0.00 | 0.00 | 0.00 | 70 | 1023.7 |
| 20260503045104 | 50 | 65 | 2.0 | 4.0 | 0.00 | 0.00 | 0.00 | 70 | 1023.5 |
| 20260503045004 | 50 | 63 | 2.0 | 4.0 | 0.00 | 0.00 | 0.00 | 70 | 1023.6 |
| 20260503044905 | 50 | 67 | 1.0 | 4.0 | 0.00 | 0.00 | 0.00 | 70 | 1023.7 |
| 20260503044804 | 50 | 57 | 1.0 | 4.0 | 0.00 | 0.00 | 0.00 | 70 | 1023.7 |
| 20260503044714 | 50 | 53 | 1.0 | 4.0 | 0.00 | 0.00 | 0.00 | 70 | 1023.7 |
| 20260503044703 | 50 | 52 | 1.0 | 4.0 | 0.00 | 0.00 | 0.00 | 69 | 1023.8 |
| 20260503044605 | 50 | 39 | 1.0 | 4.0 | 0.00 | 0.00 | 0.00 | 69 | 1023.9 |
| 20260503044405 | 50 | 29 | 1.0 | 4.0 | 0.00 | 0.00 | 0.00 | 68 | 1023.6 |
| 20260503044303 | 50 | 30 | 2.0 | 4.0 | 0.00 | 0.00 | 0.00 | 68 | 1023.6 |
| 20260503044204 | 50 | 30 | 2.0 | 4.0 | 0.00 | 0.00 | 0.00 | 68 | 1023.7 |
| 20260503044104 | 50 | 35 | 2.0 | 4.0 | 0.00 | 0.00 | 0.00 | 68 | 1023.8 |
| 20260503044014 | 50 | 53 | 1.0 | 4.0 | 0.00 | 0.00 | 0.00 | 68 | 1023.7 |
| 20260503044004 | 50 | 54 | 1.0 | 4.0 | 0.00 | 0.00 | 0.00 | 68 | 1023.7 |
| 20260503043918 | 50 | 64 | 1.0 | 4.0 | 0.00 | 0.00 | 0.00 | 68 | 1023.9 |
| 20260503043903 | 50 | 66 | 1.0 | 4.0 | 0.00 | 0.00 | 0.00 | 68 | 1023.7 |
| 20260503043816 | 50 | 66 | 1.0 | 4.0 | 0.00 | 0.00 | 0.00 | 68 | 1023.7 |
| 20260503043510 | 50 | 74 | 1.0 | 4.0 | 0.00 | 0.00 | 0.00 | 67 | 1023.6 |
| 20260503043408 | 51 | 65 | 1.0 | 4.0 | 0.00 | 0.00 | 0.00 | 67 | 1023.5 |
| 20260503043303 | 51 | 60 | 1.0 | 4.0 | 0.00 | 0.00 | 0.00 | 67 | 1023.7 |
| 20260503043204 | 51 | 52 | 1.0 | 4.0 | 0.00 | 0.00 | 0.00 | 67 | 1023.7 |
| 20260503043103 | 51 | 50 | 2.0 | 4.0 | 0.00 | 0.00 | 0.00 | 67 | 1023.8 |
| 20260503043003 | 51 | 45 | 2.0 | 4.0 | 0.00 | 0.00 | 0.00 | 67 | 1023.7 |
| 20260503042903 | 51 | 45 | 1.0 | 4.0 | 0.00 | 0.00 | 0.00 | 67 | 1023.8 |
| 20260503042818 | 51 | 46 | 2.0 | 4.0 | 0.00 | 0.00 | 0.00 | 67 | 1023.8 |
| 20260503042805 | 51 | 48 | 2.0 | 4.0 | 0.00 | 0.00 | 0.00 | 67 | 1023.8 |
| 20260503042705 | 51 | 50 | 2.0 | 4.0 | 0.00 | 0.00 | 0.00 | 67 | 1023.9 |
| 20260503042513 | 51 | 38 | 2.0 | 4.0 | 0.00 | 0.00 | 0.00 | 68 | 1023.9 |
| 20260503042505 | 51 | 37 | 2.0 | 4.0 | 0.00 | 0.00 | 0.00 | 68 | 1023.9 |
| 20260503042405 | 51 | 32 | 2.0 | 4.0 | 0.00 | 0.00 | 0.00 | 68 | 1023.9 |
| 20260503042205 | 51 | 360 | 0.0 | 2.0 | 0.00 | 0.00 | 0.00 | 68 | 1023.8 |
| 20260503042105 | 51 | 360 | 1.0 | 2.0 | 0.00 | 0.00 | 0.00 | 68 | 1023.8 |
| 20260503042004 | 51 | 0 | 0.0 | 0.0 | 0.00 | 0.00 | 0.00 | 68 | 1023.6 |
| 20260503041903 | 51 | 0 | 0.0 | 0.0 | 0.00 | 0.00 | 0.00 | 68 | 1023.9 |
| 20260503041803 | 51 | 0 | 0.0 | 0.0 | 0.00 | 0.00 | 0.00 | 68 | 1023.9 |
| 20260503041709 | 51 | 0 | 0.0 | 0.0 | 0.00 | 0.00 | 0.00 | 68 | 1024.0 |
| 20260503041604 | 51 | 0 | 0.0 | 0.0 | 0.00 | 0.00 | 0.00 | 68 | 1023.6 |
| 20260503041503 | 51 | 0 | 0.0 | 0.0 | 0.00 | 0.00 | 0.00 | 67 | 1023.9 |
| 20260503041403 | 51 | 0 | 0.0 | 0.0 | 0.00 | 0.00 | 0.00 | 68 | 1023.9 |
| 20260503041305 | 51 | 0 | 0.0 | 0.0 | 0.00 | 0.00 | 0.00 | 68 | 1023.9 |
| 20260503041203 | 51 | 0 | 0.0 | 0.0 | 0.00 | 0.00 | 0.00 | 68 | 1024.0 |
| 20260503040903 | 51 | 0 | 0.0 | 0.0 | 0.00 | 0.00 | 0.00 | 68 | 1024.0 |
| 20260503040703 | 51 | 0 | 0.0 | 0.0 | 0.00 | 0.00 | 0.00 | 68 | 1023.9 |
| 20260503040604 | 51 | 0 | 0.0 | 0.0 | 0.00 | 0.00 | 0.00 | 68 | 1023.9 |
| 20260503040505 | 51 | 0 | 0.0 | 0.0 | 0.00 | 0.00 | 0.00 | 69 | 1023.9 |
| 20260503040404 | 51 | 0 | 0.0 | 0.0 | 0.00 | 0.00 | 0.00 | 69 | 1023.9 |
| 20260503040304 | 51 | 0 | 0.0 | 0.0 | 0.00 | 0.00 | 0.00 | 69 | 1024.0 |
| 20260503040204 | 51 | 0 | 0.0 | 0.0 | 0.00 | 0.00 | 0.00 | 69 | 1023.8 |
| 20260503040104 | 50 | 0 | 0.0 | 0.0 | 0.00 | 0.00 | 0.00 | 69 | 1023.8 |
| 20260503040005 | 50 | 0 | 0.0 | 0.0 | 0.00 | 0.00 | 0.00 | 70 | 1024.0 |
| 20260503035909 | 50 | 0 | 0.0 | 0.0 | 0.00 | 0.00 | 0.00 | 71 | 1024.0 |
| 20260503035816 | 50 | 0 | 0.0 | 0.0 | 0.00 | 0.00 | 0.00 | 71 | 1024.0 |
| 20260503035705 | 50 | 0 | 0.0 | 0.0 | 0.00 | 0.00 | 0.00 | 71 | 1024.0 |
| 20260503035504 | 49 | 0 | 0.0 | 0.0 | 0.00 | 0.00 | 0.00 | 72 | 1024.1 |
| 20260503035404 | 49 | 0 | 0.0 | 0.0 | 0.00 | 0.00 | 0.00 | 72 | 1024.1 |
| 20260503035305 | 49 | 0 | 0.0 | 0.0 | 0.00 | 0.00 | 0.00 | 72 | 1024.2 |
| 20260503035204 | 49 | 0 | 0.0 | 0.0 | 0.00 | 0.00 | 0.00 | 72 | 1024.4 |
| 20260503035104 | 49 | 0 | 0.0 | 0.0 | 0.00 | 0.00 | 0.00 | 72 | 1024.1 |
| 20260503035004 | 49 | 0 | 0.0 | 0.0 | 0.00 | 0.00 | 0.00 | 72 | 1024.1 |
| 20260503034905 | 49 | 0 | 0.0 | 0.0 | 0.00 | 0.00 | 0.00 | 72 | 1024.1 |
| 20260503034708 | 49 | 0 | 0.0 | 0.0 | 0.00 | 0.00 | 0.00 | 72 | 1024.2 |
| 20260503034605 | 49 | 0 | 0.0 | 0.0 | 0.00 | 0.00 | 0.00 | 71 | 1024.2 |
| 20260503034504 | 49 | 0 | 0.0 | 0.0 | 0.00 | 0.00 | 0.00 | 71 | 1024.2 |
| 20260503034404 | 49 | 0 | 0.0 | 0.0 | 0.00 | 0.00 | 0.00 | 70 | 1024.5 |
| 20260503034204 | 49 | 0 | 0.0 | 0.0 | 0.00 | 0.00 | 0.00 | 71 | 1024.4 |
| 20260503034103 | 49 | 0 | 0.0 | 0.0 | 0.00 | 0.00 | 0.00 | 71 | 1024.2 |
| 20260503034003 | 49 | 0 | 0.0 | 0.0 | 0.00 | 0.00 | 0.00 | 71 | 1024.2 |
| 20260503033803 | 49 | 0 | 0.0 | 0.0 | 0.00 | 0.00 | 0.00 | 70 | 1024.3 |
| 20260503033703 | 49 | 0 | 0.0 | 0.0 | 0.00 | 0.00 | 0.00 | 70 | 1024.3 |
| 20260503033604 | 49 | 0 | 0.0 | 0.0 | 0.00 | 0.00 | 0.00 | 70 | 1024.3 |
| 20260503033503 | 49 | 0 | 0.0 | 0.0 | 0.00 | 0.00 | 0.00 | 70 | 1024.4 |
| 20260503033404 | 49 | 0 | 0.0 | 0.0 | 0.00 | 0.00 | 0.00 | 70 | 1024.5 |
| 20260503033307 | 49 | 0 | 0.0 | 0.0 | 0.00 | 0.00 | 0.00 | 70 | 1024.6 |
| 20260503033204 | 49 | 0 | 0.0 | 0.0 | 0.00 | 0.00 | 0.00 | 70 | 1024.5 |
| 20260503033105 | 49 | 0 | 0.0 | 0.0 | 0.00 | 0.00 | 0.00 | 70 | 1024.5 |
| 20260503033003 | 49 | 0 | 0.0 | 0.0 | 0.00 | 0.00 | 0.00 | 70 | 1024.4 |
| 20260503032905 | 49 | 0 | 0.0 | 0.0 | 0.00 | 0.00 | 0.00 | 70 | 1024.3 |
| 20260503032804 | 49 | 0 | 0.0 | 0.0 | 0.00 | 0.00 | 0.00 | 69 | 1024.6 |
| 20260503032605 | 49 | 0 | 0.0 | 0.0 | 0.00 | 0.00 | 0.00 | 69 | 1024.4 |
| 20260503032503 | 49 | 0 | 0.0 | 0.0 | 0.00 | 0.00 | 0.00 | 69 | 1024.5 |
| 20260503032404 | 49 | 0 | 0.0 | 0.0 | 0.00 | 0.00 | 0.00 | 69 | 1024.5 |
| 20260503032305 | 49 | 0 | 0.0 | 0.0 | 0.00 | 0.00 | 0.00 | 69 | 1024.5 |
| 20260503032003 | 49 | 0 | 0.0 | 0.0 | 0.00 | 0.00 | 0.00 | 68 | 1024.4 |
| 20260503031903 | 49 | 0 | 0.0 | 0.0 | 0.00 | 0.00 | 0.00 | 67 | 1024.4 |
| 20260503031804 | 49 | 0 | 0.0 | 0.0 | 0.00 | 0.00 | 0.00 | 67 | 1024.7 |
| 20260503031704 | 49 | 0 | 0.0 | 0.0 | 0.00 | 0.00 | 0.00 | 67 | 1024.4 |
| 20260503031603 | 49 | 0 | 0.0 | 0.0 | 0.00 | 0.00 | 0.00 | 67 | 1024.4 |
| 20260503031515 | 49 | 0 | 0.0 | 0.0 | 0.00 | 0.00 | 0.00 | 67 | 1024.7 |
| 20260503031505 | 49 | 0 | 0.0 | 0.0 | 0.00 | 0.00 | 0.00 | 67 | 1024.4 |
| 20260503031405 | 49 | 0 | 0.0 | 0.0 | 0.00 | 0.00 | 0.00 | 68 | 1024.7 |
| 20260503031312 | 49 | 0 | 0.0 | 0.0 | 0.00 | 0.00 | 0.00 | 68 | 1024.5 |
| 20260503031205 | 49 | 0 | 0.0 | 0.0 | 0.00 | 0.00 | 0.00 | 68 | 1024.9 |
| 20260503031005 | 49 | 0 | 0.0 | 0.0 | 0.00 | 0.00 | 0.00 | 69 | 1024.7 |
| 20260503030904 | 49 | 0 | 0.0 | 0.0 | 0.00 | 0.00 | 0.00 | 69 | 1024.4 |
| 20260503030804 | 49 | 0 | 0.0 | 0.0 | 0.00 | 0.00 | 0.00 | 68 | 1024.7 |
| 20260503030707 | 49 | 0 | 0.0 | 0.0 | 0.00 | 0.00 | 0.00 | 68 | 1024.5 |
| 20260503030605 | 49 | 0 | 0.0 | 0.0 | 0.00 | 0.00 | 0.00 | 68 | 1024.3 |
| 20260503030505 | 49 | 0 | 0.0 | 0.0 | 0.00 | 0.00 | 0.00 | 68 | 1024.5 |
| 20260503030407 | 49 | 0 | 0.0 | 0.0 | 0.00 | 0.00 | 0.00 | 68 | 1024.4 |
| 20260503030304 | 49 | 0 | 0.0 | 0.0 | 0.00 | 0.00 | 0.00 | 68 | 1024.5 |
| 20260503030204 | 49 | 0 | 0.0 | 0.0 | 0.00 | 0.00 | 0.00 | 68 | 1024.4 |
| 20260503030104 | 49 | 0 | 0.0 | 0.0 | 0.00 | 0.00 | 0.00 | 68 | 1024.7 |
| 20260503025804 | 49 | 0 | 0.0 | 0.0 | 0.00 | 0.00 | 0.00 | 68 | 1024.5 |
| 20260503025703 | 49 | 0 | 0.0 | 0.0 | 0.00 | 0.00 | 0.00 | 69 | 1024.5 |
| 20260503025603 | 49 | 0 | 0.0 | 0.0 | 0.00 | 0.00 | 0.00 | 68 | 1024.5 |
| 20260503025505 | 49 | 0 | 0.0 | 0.0 | 0.00 | 0.00 | 0.00 | 68 | 1024.4 |
| 20260503025404 | 50 | 0 | 0.0 | 0.0 | 0.00 | 0.00 | 0.00 | 69 | 1024.5 |
| 20260503025306 | 50 | 0 | 0.0 | 0.0 | 0.00 | 0.00 | 0.00 | 69 | 1024.5 |
| 20260503025204 | 50 | 0 | 0.0 | 0.0 | 0.00 | 0.00 | 0.00 | 69 | 1024.5 |
| 20260503025103 | 50 | 0 | 0.0 | 0.0 | 0.00 | 0.00 | 0.00 | 68 | 1024.4 |
| 20260503024903 | 50 | 0 | 0.0 | 0.0 | 0.00 | 0.00 | 0.00 | 68 | 1024.5 |
| 20260503024804 | 50 | 0 | 0.0 | 0.0 | 0.00 | 0.00 | 0.00 | 68 | 1024.8 |
| 20260503024603 | 50 | 0 | 0.0 | 0.0 | 0.00 | 0.00 | 0.00 | 68 | 1024.5 |
| 20260503024504 | 50 | 0 | 0.0 | 0.0 | 0.00 | 0.00 | 0.00 | 68 | 1024.4 |
| 20260503024404 | 50 | 0 | 0.0 | 0.0 | 0.00 | 0.00 | 0.00 | 68 | 1024.4 |
| 20260503024304 | 50 | 0 | 0.0 | 0.0 | 0.00 | 0.00 | 0.00 | 68 | 1024.6 |
| 20260503024203 | 50 | 0 | 0.0 | 0.0 | 0.00 | 0.00 | 0.00 | 68 | 1024.6 |
| 20260503024105 | 50 | 0 | 0.0 | 0.0 | 0.00 | 0.00 | 0.00 | 68 | 1024.7 |
| 20260503024005 | 50 | 0 | 0.0 | 0.0 | 0.00 | 0.00 | 0.00 | 67 | 1024.8 |
| 20260503023915 | 50 | 0 | 0.0 | 0.0 | 0.00 | 0.00 | 0.00 | 67 | 1024.7 |
| 20260503023904 | 50 | 0 | 0.0 | 0.0 | 0.00 | 0.00 | 0.00 | 66 | 1024.5 |
| 20260503023818 | 50 | 0 | 0.0 | 0.0 | 0.00 | 0.00 | 0.00 | 66 | 1024.5 |
| 20260503023805 | 50 | 0 | 0.0 | 0.0 | 0.00 | 0.00 | 0.00 | 66 | 1024.6 |
| 20260503023504 | 50 | 0 | 0.0 | 0.0 | 0.00 | 0.00 | 0.00 | 67 | 1024.7 |
| 20260503023403 | 50 | 0 | 0.0 | 0.0 | 0.00 | 0.00 | 0.00 | 67 | 1024.7 |
| 20260503023308 | 50 | 0 | 0.0 | 0.0 | 0.00 | 0.00 | 0.00 | 67 | 1024.7 |
| 20260503023204 | 51 | 0 | 0.0 | 0.0 | 0.00 | 0.00 | 0.00 | 67 | 1024.7 |
| 20260503023003 | 50 | 0 | 0.0 | 0.0 | 0.00 | 0.00 | 0.00 | 67 | 1024.7 |
| 20260503022905 | 50 | 0 | 0.0 | 0.0 | 0.00 | 0.00 | 0.00 | 66 | 1024.6 |
| 20260503022804 | 50 | 0 | 0.0 | 0.0 | 0.00 | 0.00 | 0.00 | 66 | 1024.8 |
| 20260503022703 | 50 | 0 | 0.0 | 0.0 | 0.00 | 0.00 | 0.00 | 66 | 1024.8 |
| 20260503022603 | 50 | 0 | 0.0 | 0.0 | 0.00 | 0.00 | 0.00 | 66 | 1024.7 |
| 20260503022505 | 50 | 0 | 0.0 | 0.0 | 0.00 | 0.00 | 0.00 | 66 | 1024.6 |
| 20260503022405 | 50 | 0 | 0.0 | 0.0 | 0.00 | 0.00 | 0.00 | 66 | 1024.7 |
| 20260503022317 | 50 | 0 | 0.0 | 0.0 | 0.00 | 0.00 | 0.00 | 66 | 1024.8 |
| 20260503022203 | 50 | 0 | 0.0 | 0.0 | 0.00 | 0.00 | 0.00 | 66 | 1024.6 |
| 20260503022114 | 50 | 0 | 0.0 | 0.0 | 0.00 | 0.00 | 0.00 | 65 | 1024.7 |
| 20260503021803 | 51 | 0 | 0.0 | 0.0 | 0.00 | 0.00 | 0.00 | 66 | 1024.6 |
| 20260503021703 | 50 | 0 | 0.0 | 0.0 | 0.00 | 0.00 | 0.00 | 65 | 1024.7 |
| 20260503021604 | 50 | 0 | 0.0 | 0.0 | 0.00 | 0.00 | 0.00 | 65 | 1024.5 |
| 20260503021503 | 51 | 0 | 0.0 | 0.0 | 0.00 | 0.00 | 0.00 | 65 | 1024.8 |
| 20260503021310 | 51 | 0 | 0.0 | 0.0 | 0.00 | 0.00 | 0.00 | 65 | 1024.7 |
| 20260503021204 | 51 | 0 | 0.0 | 0.0 | 0.00 | 0.00 | 0.00 | 65 | 1024.7 |
| 20260503021107 | 51 | 0 | 0.0 | 0.0 | 0.00 | 0.00 | 0.00 | 65 | 1024.8 |
| 20260503021004 | 51 | 0 | 0.0 | 0.0 | 0.00 | 0.00 | 0.00 | 65 | 1024.8 |
| 20260503020904 | 51 | 0 | 0.0 | 0.0 | 0.00 | 0.00 | 0.00 | 64 | 1024.8 |
| 20260503020804 | 51 | 0 | 0.0 | 0.0 | 0.00 | 0.00 | 0.00 | 64 | 1024.7 |
| 20260503020706 | 51 | 0 | 0.0 | 0.0 | 0.00 | 0.00 | 0.00 | 64 | 1024.5 |
| 20260503020603 | 51 | 0 | 0.0 | 0.0 | 0.00 | 0.00 | 0.00 | 65 | 1024.6 |
| 20260503020505 | 51 | 0 | 0.0 | 0.0 | 0.00 | 0.00 | 0.00 | 64 | 1024.6 |
| 20260503020405 | 51 | 0 | 0.0 | 0.0 | 0.00 | 0.00 | 0.00 | 64 | 1024.6 |
| 20260503020304 | 51 | 0 | 0.0 | 0.0 | 0.00 | 0.00 | 0.00 | 64 | 1024.9 |
| 20260503020207 | 51 | 0 | 0.0 | 0.0 | 0.00 | 0.00 | 0.00 | 64 | 1024.7 |
| 20260503020004 | 51 | 0 | 0.0 | 0.0 | 0.00 | 0.00 | 0.00 | 64 | 1024.7 |
| 20260503015904 | 51 | 0 | 0.0 | 0.0 | 0.00 | 0.00 | 0.00 | 63 | 1024.6 |
| 20260503015805 | 51 | 0 | 0.0 | 0.0 | 0.00 | 0.00 | 0.00 | 64 | 1024.6 |
| 20260503015705 | 51 | 0 | 0.0 | 0.0 | 0.00 | 0.00 | 0.00 | 64 | 1024.6 |
| 20260503015604 | 51 | 0 | 0.0 | 0.0 | 0.00 | 0.00 | 0.00 | 64 | 1024.7 |
| 20260503015513 | 51 | 0 | 0.0 | 0.0 | 0.00 | 0.00 | 0.00 | 63 | 1024.8 |
| 20260503015404 | 51 | 0 | 0.0 | 0.0 | 0.00 | 0.00 | 0.00 | 62 | 1024.8 |
| 20260503015203 | 51 | 0 | 0.0 | 0.0 | 0.00 | 0.00 | 0.00 | 63 | 1024.7 |
| 20260503015104 | 51 | 0 | 0.0 | 0.0 | 0.00 | 0.00 | 0.00 | 62 | 1024.8 |
| 20260503015003 | 51 | 0 | 0.0 | 0.0 | 0.00 | 0.00 | 0.00 | 62 | 1024.9 |
| 20260503014903 | 51 | 0 | 0.0 | 0.0 | 0.00 | 0.00 | 0.00 | 61 | 1024.7 |
| 20260503014804 | 51 | 0 | 0.0 | 0.0 | 0.00 | 0.00 | 0.00 | 61 | 1024.8 |
| 20260503014703 | 52 | 0 | 0.0 | 0.0 | 0.00 | 0.00 | 0.00 | 61 | 1024.9 |
| 20260503014504 | 52 | 0 | 0.0 | 0.0 | 0.00 | 0.00 | 0.00 | 60 | 1024.8 |
| 20260503014404 | 52 | 0 | 0.0 | 0.0 | 0.00 | 0.00 | 0.00 | 59 | 1024.7 |
| 20260503014304 | 52 | 0 | 0.0 | 0.0 | 0.00 | 0.00 | 0.00 | 59 | 1024.7 |
| 20260503014204 | 52 | 0 | 0.0 | 0.0 | 0.00 | 0.00 | 0.00 | 59 | 1024.5 |
| 20260503014104 | 52 | 0 | 0.0 | 0.0 | 0.00 | 0.00 | 0.00 | 57 | 1024.7 |
| 20260503014003 | 52 | 0 | 0.0 | 0.0 | 0.00 | 0.00 | 0.00 | 58 | 1024.8 |
| 20260503013903 | 52 | 0 | 0.0 | 0.0 | 0.00 | 0.00 | 0.00 | 58 | 1024.7 |
| 20260503013807 | 52 | 0 | 0.0 | 0.0 | 0.00 | 0.00 | 0.00 | 58 | 1024.9 |
| 20260503013704 | 52 | 0 | 0.0 | 0.0 | 0.00 | 0.00 | 0.00 | 58 | 1024.7 |
| 20260503013603 | 52 | 0 | 0.0 | 0.0 | 0.00 | 0.00 | 0.00 | 57 | 1024.5 |
| 20260503013503 | 53 | 0 | 0.0 | 0.0 | 0.00 | 0.00 | 0.00 | 56 | 1024.7 |
| 20260503013303 | 53 | 0 | 0.0 | 0.0 | 0.00 | 0.00 | 0.00 | 57 | 1024.7 |
| 20260503013206 | 53 | 0 | 0.0 | 0.0 | 0.00 | 0.00 | 0.00 | 57 | 1024.7 |
| 20260503013103 | 53 | 0 | 0.0 | 0.0 | 0.00 | 0.00 | 0.00 | 56 | 1024.6 |
| 20260503013004 | 53 | 0 | 0.0 | 0.0 | 0.00 | 0.00 | 0.00 | 57 | 1024.7 |
| 20260503012904 | 53 | 0 | 0.0 | 0.0 | 0.00 | 0.00 | 0.00 | 56 | 1024.5 |
| 20260503012807 | 53 | 0 | 0.0 | 0.0 | 0.00 | 0.00 | 0.00 | 56 | 1024.6 |
| 20260503012703 | 53 | 0 | 0.0 | 0.0 | 0.00 | 0.00 | 0.00 | 56 | 1024.7 |
| 20260503012606 | 53 | 0 | 0.0 | 0.0 | 0.00 | 0.00 | 0.00 | 56 | 1024.6 |
| 20260503012505 | 53 | 0 | 0.0 | 0.0 | 0.00 | 0.00 | 0.00 | 57 | 1024.6 |
| 20260503012405 | 53 | 0 | 0.0 | 0.0 | 0.00 | 0.00 | 0.00 | 56 | 1024.6 |
| 20260503012318 | 53 | 0 | 0.0 | 0.0 | 0.00 | 0.00 | 0.00 | 56 | 1024.7 |
| 20260503012305 | 53 | 0 | 0.0 | 0.0 | 0.00 | 0.00 | 0.00 | 57 | 1024.9 |
| 20260503012203 | 53 | 0 | 0.0 | 0.0 | 0.00 | 0.00 | 0.00 | 57 | 1024.8 |
| 20260503012004 | 53 | 0 | 0.0 | 0.0 | 0.00 | 0.00 | 0.00 | 57 | 1024.7 |
| 20260503011904 | 53 | 0 | 0.0 | 0.0 | 0.00 | 0.00 | 0.00 | 56 | 1024.7 |
| 20260503011804 | 53 | 0 | 0.0 | 0.0 | 0.00 | 0.00 | 0.00 | 55 | 1024.5 |
| 20260503011704 | 53 | 0 | 0.0 | 0.0 | 0.00 | 0.00 | 0.00 | 56 | 1024.5 |
| 20260503011604 | 53 | 0 | 0.0 | 0.0 | 0.00 | 0.00 | 0.00 | 56 | 1024.5 |
| 20260503011506 | 53 | 0 | 0.0 | 0.0 | 0.00 | 0.00 | 0.00 | 56 | 1024.5 |
| 20260503011404 | 53 | 0 | 0.0 | 0.0 | 0.00 | 0.00 | 0.00 | 56 | 1024.3 |
| 20260503011305 | 53 | 0 | 0.0 | 0.0 | 0.00 | 0.00 | 0.00 | 56 | 1024.3 |
| 20260503011116 | 53 | 0 | 0.0 | 0.0 | 0.00 | 0.00 | 0.00 | 56 | 1024.4 |
| 20260503011006 | 53 | 0 | 0.0 | 0.0 | 0.00 | 0.00 | 0.00 | 55 | 1024.4 |
| 20260503010805 | 53 | 0 | 0.0 | 0.0 | 0.00 | 0.00 | 0.00 | 54 | 1024.5 |
| 20260503010715 | 54 | 0 | 0.0 | 0.0 | 0.00 | 0.00 | 0.00 | 53 | 1024.5 |
| 20260503010704 | 54 | 0 | 0.0 | 0.0 | 0.00 | 0.00 | 0.00 | 54 | 1024.4 |
| 20260503010605 | 54 | 0 | 0.0 | 0.0 | 0.00 | 0.00 | 0.00 | 55 | 1024.6 |
| 20260503010403 | 54 | 0 | 0.0 | 0.0 | 0.00 | 0.00 | 0.00 | 52 | 1024.6 |
| 20260503010320 | 54 | 0 | 0.0 | 0.0 | 0.00 | 0.00 | 0.00 | 53 | 1024.3 |
| 20260503010303 | 54 | 0 | 0.0 | 0.0 | 0.00 | 0.00 | 0.00 | 53 | 1024.4 |
| 20260503010004 | 54 | 0 | 0.0 | 0.0 | 0.00 | 0.00 | 0.00 | 52 | 1024.3 |
| 20260503005903 | 54 | 0 | 0.0 | 0.0 | 0.00 | 0.00 | 0.00 | 51 | 1024.4 |
| 20260503005706 | 54 | 0 | 0.0 | 0.0 | 0.00 | 0.00 | 0.00 | 53 | 1024.3 |
| 20260503005603 | 54 | 0 | 0.0 | 0.0 | 0.00 | 0.00 | 0.00 | 52 | 1024.4 |
| 20260503005503 | 54 | 0 | 0.0 | 0.0 | 0.00 | 0.00 | 0.00 | 51 | 1024.2 |
| 20260503005403 | 54 | 0 | 0.0 | 0.0 | 0.00 | 0.00 | 0.00 | 51 | 1024.2 |
| 20260503005304 | 54 | 0 | 0.0 | 0.0 | 0.00 | 0.00 | 0.00 | 51 | 1024.3 |
| 20260503005204 | 54 | 0 | 0.0 | 0.0 | 0.00 | 0.00 | 0.00 | 51 | 1024.2 |
| 20260503005003 | 55 | 0 | 0.0 | 0.0 | 0.00 | 0.00 | 0.00 | 52 | 1024.3 |
| 20260503004903 | 55 | 0 | 0.0 | 0.0 | 0.00 | 0.00 | 0.00 | 52 | 1024.2 |
| 20260503004804 | 55 | 0 | 0.0 | 0.0 | 0.00 | 0.00 | 0.00 | 50 | 1024.2 |
| 20260503004704 | 55 | 0 | 0.0 | 0.0 | 0.00 | 0.00 | 0.00 | 50 | 1024.3 |
| 20260503004504 | 54 | 0 | 0.0 | 0.0 | 0.00 | 0.00 | 0.00 | 51 | 1024.4 |
| 20260503004404 | 55 | 0 | 0.0 | 0.0 | 0.00 | 0.00 | 0.00 | 51 | 1024.0 |
| 20260503004304 | 55 | 0 | 0.0 | 0.0 | 0.00 | 0.00 | 0.00 | 53 | 1024.1 |
| 20260503004204 | 55 | 0 | 0.0 | 0.0 | 0.00 | 0.00 | 0.00 | 50 | 1024.2 |
| 20260503004104 | 55 | 0 | 0.0 | 0.0 | 0.00 | 0.00 | 0.00 | 50 | 1024.3 |
| 20260503004005 | 55 | 0 | 0.0 | 0.0 | 0.00 | 0.00 | 0.00 | 48 | 1024.4 |
| 20260503003904 | 55 | 0 | 0.0 | 0.0 | 0.00 | 0.00 | 0.00 | 50 | 1024.3 |
| 20260503003803 | 55 | 0 | 0.0 | 0.0 | 0.00 | 0.00 | 0.00 | 49 | 1024.2 |
| 20260503003704 | 55 | 0 | 0.0 | 0.0 | 0.00 | 0.00 | 0.00 | 48 | 1024.2 |
| 20260503003604 | 55 | 0 | 0.0 | 0.0 | 0.00 | 0.00 | 0.00 | 48 | 1024.2 |
| 20260503003306 | 55 | 0 | 0.0 | 0.0 | 0.00 | 0.00 | 0.00 | 49 | 1024.3 |
| 20260503003205 | 55 | 0 | 0.0 | 0.0 | 0.00 | 0.00 | 0.00 | 49 | 1024.0 |
| 20260503003105 | 55 | 0 | 0.0 | 0.0 | 0.00 | 0.00 | 0.00 | 49 | 1024.0 |
| 20260503003003 | 55 | 0 | 0.0 | 0.0 | 0.00 | 0.00 | 0.00 | 48 | 1024.2 |
| 20260503002903 | 55 | 0 | 0.0 | 0.0 | 0.00 | 0.00 | 0.00 | 49 | 1024.2 |
| 20260503002803 | 55 | 0 | 0.0 | 0.0 | 0.00 | 0.00 | 0.00 | 48 | 1024.2 |
| 20260503002703 | 56 | 0 | 0.0 | 0.0 | 0.00 | 0.00 | 0.00 | 47 | 1024.3 |
| 20260503002604 | 56 | 0 | 0.0 | 0.0 | 0.00 | 0.00 | 0.00 | 48 | 1024.2 |
| 20260503002505 | 56 | 0 | 0.0 | 0.0 | 0.00 | 0.00 | 0.00 | 48 | 1024.3 |
| 20260503002403 | 56 | 0 | 0.0 | 0.0 | 0.00 | 0.00 | 0.00 | 48 | 1024.1 |
| 20260503002305 | 56 | 0 | 0.0 | 0.0 | 0.00 | 0.00 | 0.00 | 47 | 1024.1 |
| 20260503002217 | 56 | 0 | 0.0 | 0.0 | 0.00 | 0.00 | 0.00 | 47 | 1024.1 |
| 20260503002103 | 56 | 0 | 0.0 | 0.0 | 0.00 | 0.00 | 0.00 | 46 | 1024.1 |
| 20260503001903 | 56 | 0 | 0.0 | 0.0 | 0.00 | 0.00 | 0.00 | 46 | 1024.2 |
| 20260503001803 | 56 | 0 | 0.0 | 0.0 | 0.00 | 0.00 | 0.00 | 47 | 1024.1 |
| 20260503001703 | 56 | 0 | 0.0 | 0.0 | 0.00 | 0.00 | 0.00 | 46 | 1024.0 |
| 20260503001605 | 56 | 0 | 0.0 | 0.0 | 0.00 | 0.00 | 0.00 | 47 | 1023.9 |
| 20260503001504 | 56 | 0 | 0.0 | 0.0 | 0.00 | 0.00 | 0.00 | 46 | 1024.0 |
| 20260503001431 | 56 | 0 | 0.0 | 0.0 | 0.00 | 0.00 | 0.00 | 46 | 1024.0 |
| 20260503001405 | 56 | 0 | 0.0 | 0.0 | 0.00 | 0.00 | 0.00 | 47 | 1023.8 |
| 20260503001305 | 56 | 0 | 0.0 | 0.0 | 0.00 | 0.00 | 0.00 | 46 | 1023.9 |
| 20260503000903 | 56 | 0 | 0.0 | 0.0 | 0.00 | 0.00 | 0.00 | 45 | 1024.1 |
| 20260503000804 | 56 | 0 | 0.0 | 0.0 | 0.00 | 0.00 | 0.00 | 45 | 1023.8 |
| 20260503000716 | 56 | 0 | 0.0 | 0.0 | 0.00 | 0.00 | 0.00 | 45 | 1023.9 |
| 20260503000704 | 56 | 180 | 0.0 | 2.0 | 0.00 | 0.00 | 0.00 | 45 | 1024.3 |
| 20260503000603 | 56 | 180 | 0.0 | 2.0 | 0.00 | 0.00 | 0.00 | 45 | 1024.2 |
| 20260503000403 | 56 | 180 | 0.0 | 2.0 | 0.00 | 0.00 | 0.00 | 44 | 1024.0 |
| 20260503000305 | 56 | 180 | 0.0 | 2.0 | 0.00 | 0.00 | 0.00 | 44 | 1024.0 |
| 20260503000204 | 56 | 180 | 0.0 | 2.0 | 0.00 | 0.00 | 0.00 | 44 | 1023.9 |
| 20260503000105 | 56 | 0 | 0.0 | 0.0 | 0.00 | 0.00 | 0.00 | 44 | 1023.9 |
| 20260503000009 | 56 | 0 | 0.0 | 0.0 | 0.00 | 0.00 | 0.00 | 44 | 1024.1 |
| 20260502235803 | 56 | 112 | 0.0 | 2.0 | 0.00 | 0.00 | 0.00 | 44 | 1024.0 |
| 20260502235705 | 56 | 112 | 0.0 | 2.0 | 0.00 | 0.00 | 0.00 | 44 | 1024.2 |
| 20260502235504 | 56 | 161 | 0.0 | 2.0 | 0.00 | 0.00 | 0.00 | 43 | 1024.1 |
| 20260502235403 | 56 | 207 | 0.0 | 2.0 | 0.00 | 0.00 | 0.00 | 43 | 1024.0 |
| 20260502235305 | 56 | 207 | 0.0 | 2.0 | 0.00 | 0.00 | 0.00 | 43 | 1024.1 |
| 20260502235204 | 56 | 207 | 0.0 | 2.0 | 0.00 | 0.00 | 0.00 | 43 | 1023.8 |
| 20260502235104 | 56 | 225 | 0.0 | 2.0 | 0.00 | 0.00 | 0.00 | 43 | 1024.0 |
| 20260502235005 | 56 | 225 | 0.0 | 2.0 | 0.00 | 0.00 | 0.00 | 43 | 1024.0 |
| 20260502234904 | 56 | 135 | 0.0 | 4.0 | 0.00 | 0.00 | 0.00 | 43 | 1024.1 |
| 20260502234804 | 56 | 135 | 0.0 | 4.0 | 0.00 | 0.00 | 0.00 | 43 | 1023.9 |
| 20260502234704 | 56 | 131 | 0.0 | 4.0 | 0.00 | 0.00 | 0.00 | 43 | 1024.0 |
| 20260502234507 | 57 | 127 | 0.0 | 4.0 | 0.00 | 0.00 | 0.00 | 42 | 1024.0 |
| 20260502234403 | 57 | 147 | 2.0 | 4.0 | 0.00 | 0.00 | 0.00 | 42 | 1024.1 |
| 20260502234304 | 56 | 146 | 0.0 | 2.0 | 0.00 | 0.00 | 0.00 | 42 | 1024.2 |
| 20260502234205 | 56 | 145 | 0.0 | 2.0 | 0.00 | 0.00 | 0.00 | 42 | 1023.8 |
| 20260502234103 | 56 | 196 | 0.0 | 2.0 | 0.00 | 0.00 | 0.00 | 42 | 1024.0 |
| 20260502234018 | 56 | 187 | 0.0 | 2.0 | 0.00 | 0.00 | 0.00 | 42 | 1024.0 |
| 20260502234006 | 56 | 185 | 0.0 | 2.0 | 0.00 | 0.00 | 0.00 | 42 | 1024.0 |
| 20260502233904 | 57 | 170 | 0.0 | 2.0 | 0.00 | 0.00 | 0.00 | 42 | 1024.0 |
| 20260502233704 | 57 | 181 | 0.0 | 2.0 | 0.00 | 0.00 | 0.00 | 42 | 1024.1 |
| 20260502233604 | 56 | 180 | 1.0 | 2.0 | 0.00 | 0.00 | 0.00 | 42 | 1024.1 |
| 20260502233504 | 57 | 187 | 0.0 | 2.0 | 0.00 | 0.00 | 0.00 | 42 | 1024.0 |
| 20260502233404 | 57 | 187 | 0.0 | 2.0 | 0.00 | 0.00 | 0.00 | 42 | 1024.0 |
| 20260502233303 | 57 | 171 | 0.0 | 2.0 | 0.00 | 0.00 | 0.00 | 42 | 1023.9 |
| 20260502233204 | 57 | 161 | 0.0 | 2.0 | 0.00 | 0.00 | 0.00 | 41 | 1024.1 |
| 20260502233107 | 57 | 125 | 0.0 | 2.0 | 0.00 | 0.00 | 0.00 | 41 | 1023.9 |
| 20260502233007 | 57 | 101 | 0.0 | 2.0 | 0.00 | 0.00 | 0.00 | 41 | 1023.9 |
| 20260502232804 | 57 | 95 | 1.0 | 2.0 | 0.00 | 0.00 | 0.00 | 41 | 1024.0 |
| 20260502232703 | 57 | 90 | 1.0 | 2.0 | 0.00 | 0.00 | 0.00 | 41 | 1024.1 |
| 20260502232603 | 57 | 94 | 0.0 | 2.0 | 0.00 | 0.00 | 0.00 | 41 | 1024.2 |
| 20260502232505 | 57 | 99 | 0.0 | 2.0 | 0.00 | 0.00 | 0.00 | 41 | 1024.0 |
| 20260502232404 | 57 | 115 | 0.0 | 2.0 | 0.00 | 0.00 | 0.00 | 41 | 1024.1 |
| 20260502232304 | 57 | 115 | 0.0 | 2.0 | 0.00 | 0.00 | 0.00 | 41 | 1024.0 |
| 20260502232205 | 57 | 115 | 1.0 | 2.0 | 0.00 | 0.00 | 0.00 | 40 | 1023.9 |
| 20260502232105 | 57 | 139 | 0.0 | 2.0 | 0.00 | 0.00 | 0.00 | 40 | 1024.0 |
| 20260502232005 | 57 | 157 | 0.0 | 2.0 | 0.00 | 0.00 | 0.00 | 40 | 1023.8 |
| 20260502231904 | 57 | 0 | 0.0 | 0.0 | 0.00 | 0.00 | 0.00 | 40 | 1024.0 |
| 20260502231805 | 57 | 0 | 0.0 | 0.0 | 0.00 | 0.00 | 0.00 | 40 | 1024.0 |
| 20260502231703 | 57 | 0 | 0.0 | 0.0 | 0.00 | 0.00 | 0.00 | 39 | 1023.9 |
| 20260502231603 | 57 | 135 | 0.0 | 2.0 | 0.00 | 0.00 | 0.00 | 40 | 1024.1 |
| 20260502231504 | 57 | 115 | 0.0 | 4.0 | 0.00 | 0.00 | 0.00 | 39 | 1024.0 |
| 20260502231403 | 57 | 100 | 0.0 | 4.0 | 0.00 | 0.00 | 0.00 | 40 | 1023.9 |
| 20260502231303 | 57 | 97 | 0.0 | 4.0 | 0.00 | 0.00 | 0.00 | 39 | 1024.0 |
| 20260502231204 | 57 | 99 | 0.0 | 4.0 | 0.00 | 0.00 | 0.00 | 39 | 1024.1 |
| 20260502231117 | 58 | 101 | 0.0 | 4.0 | 0.00 | 0.00 | 0.00 | 39 | 1024.0 |
| 20260502231103 | 58 | 100 | 0.0 | 4.0 | 0.00 | 0.00 | 0.00 | 39 | 1023.9 |
| 20260502231005 | 58 | 100 | 2.0 | 4.0 | 0.00 | 0.00 | 0.00 | 38 | 1024.0 |
| 20260502230803 | 58 | 112 | 0.0 | 4.0 | 0.00 | 0.00 | 0.00 | 39 | 1023.9 |
| 20260502230703 | 58 | 112 | 1.0 | 4.0 | 0.00 | 0.00 | 0.00 | 38 | 1023.9 |
| 20260502230604 | 58 | 0 | 0.0 | 0.0 | 0.00 | 0.00 | 0.00 | 38 | 1024.1 |
| 20260502230504 | 58 | 0 | 0.0 | 0.0 | 0.00 | 0.00 | 0.00 | 38 | 1023.7 |
| 20260502230304 | 58 | 235 | 0.0 | 4.0 | 0.00 | 0.00 | 0.00 | 38 | 1023.8 |
| 20260502230205 | 58 | 227 | 0.0 | 4.0 | 0.00 | 0.00 | 0.00 | 38 | 1024.0 |
| 20260502230110 | 58 | 190 | 0.0 | 4.0 | 0.00 | 0.00 | 0.00 | 38 | 1024.0 |
| 20260502230017 | 58 | 166 | 0.0 | 4.0 | 0.00 | 0.00 | 0.00 | 38 | 1023.8 |
| 20260502230005 | 58 | 159 | 0.0 | 4.0 | 0.00 | 0.00 | 0.00 | 38 | 1023.8 |
| 20260502225905 | 58 | 187 | 0.0 | 4.0 | 0.00 | 0.00 | 0.00 | 38 | 1023.8 |
| 20260502225704 | 58 | 154 | 0.0 | 6.0 | 0.00 | 0.00 | 0.00 | 37 | 1023.8 |
| 20260502225604 | 58 | 151 | 1.0 | 6.0 | 0.00 | 0.00 | 0.00 | 37 | 1023.8 |
| 20260502225504 | 58 | 152 | 2.0 | 6.0 | 0.00 | 0.00 | 0.00 | 37 | 1023.9 |
| 20260502225404 | 58 | 140 | 2.0 | 6.0 | 0.00 | 0.00 | 0.00 | 36 | 1023.6 |
| 20260502225317 | 58 | 144 | 2.0 | 6.0 | 0.00 | 0.00 | 0.00 | 36 | 1023.9 |
| 20260502225305 | 58 | 145 | 2.0 | 6.0 | 0.00 | 0.00 | 0.00 | 36 | 1023.9 |
| 20260502225204 | 58 | 139 | 1.0 | 4.0 | 0.00 | 0.00 | 0.00 | 37 | 1023.8 |
| 20260502225003 | 58 | 140 | 1.0 | 4.0 | 0.00 | 0.00 | 0.00 | 37 | 1023.8 |
| 20260502224916 | 58 | 142 | 0.0 | 4.0 | 0.00 | 0.00 | 0.00 | 37 | 1023.9 |
| 20260502224904 | 58 | 138 | 0.0 | 4.0 | 0.00 | 0.00 | 0.00 | 37 | 1023.9 |
| 20260502224805 | 58 | 115 | 0.0 | 6.0 | 0.00 | 0.00 | 0.00 | 37 | 1023.8 |
| 20260502224604 | 58 | 106 | 1.0 | 6.0 | 0.00 | 0.00 | 0.00 | 36 | 1023.8 |
| 20260502224503 | 58 | 94 | 1.0 | 6.0 | 0.00 | 0.00 | 0.00 | 36 | 1023.6 |
| 20260502224419 | 58 | 92 | 1.0 | 6.0 | 0.00 | 0.00 | 0.00 | 36 | 1024.0 |
| 20260502224404 | 58 | 96 | 1.0 | 6.0 | 0.00 | 0.00 | 0.00 | 36 | 1024.0 |
| 20260502224303 | 58 | 115 | 0.0 | 4.0 | 0.00 | 0.00 | 0.00 | 37 | 1023.9 |
| 20260502224103 | 58 | 139 | 0.0 | 4.0 | 0.00 | 0.00 | 0.00 | 36 | 1023.7 |
| 20260502224019 | 58 | 134 | 1.0 | 4.0 | 0.00 | 0.00 | 0.00 | 37 | 1023.6 |
| 20260502224004 | 58 | 128 | 1.0 | 4.0 | 0.00 | 0.00 | 0.00 | 37 | 1023.6 |
| 20260502223905 | 58 | 130 | 1.0 | 6.0 | 0.00 | 0.00 | 0.00 | 36 | 1023.8 |
| 20260502223703 | 59 | 158 | 0.0 | 6.0 | 0.00 | 0.00 | 0.00 | 36 | 1023.7 |
| 20260502223605 | 59 | 155 | 0.0 | 6.0 | 0.00 | 0.00 | 0.00 | 36 | 1023.9 |
| 20260502223508 | 59 | 160 | 1.0 | 6.0 | 0.00 | 0.00 | 0.00 | 36 | 1023.6 |
| 20260502223305 | 58 | 163 | 0.0 | 2.0 | 0.00 | 0.00 | 0.00 | 37 | 1023.9 |
| 20260502223204 | 58 | 153 | 1.0 | 2.0 | 0.00 | 0.00 | 0.00 | 36 | 1023.7 |
| 20260502223116 | 58 | 152 | 0.0 | 2.0 | 0.00 | 0.00 | 0.00 | 37 | 1023.6 |
| 20260502223103 | 58 | 125 | 0.0 | 4.0 | 0.00 | 0.00 | 0.00 | 37 | 1023.6 |
| 20260502223004 | 59 | 92 | 0.0 | 4.0 | 0.00 | 0.00 | 0.00 | 37 | 1023.9 |
| 20260502222803 | 59 | 84 | 0.0 | 4.0 | 0.00 | 0.00 | 0.00 | 36 | 1023.8 |
| 20260502222703 | 59 | 49 | 0.0 | 4.0 | 0.00 | 0.00 | 0.00 | 36 | 1023.8 |
| 20260502222605 | 59 | 46 | 2.0 | 4.0 | 0.00 | 0.00 | 0.00 | 35 | 1023.8 |
| 20260502222506 | 59 | 259 | 0.0 | 2.0 | 0.00 | 0.00 | 0.00 | 36 | 1023.8 |
| 20260502222404 | 59 | 176 | 0.0 | 4.0 | 0.00 | 0.00 | 0.00 | 36 | 1023.6 |
| 20260502222305 | 59 | 170 | 0.0 | 4.0 | 0.00 | 0.00 | 0.00 | 36 | 1023.8 |
| 20260502222203 | 59 | 154 | 0.0 | 4.0 | 0.00 | 0.00 | 0.00 | 35 | 1023.7 |
| 20260502222105 | 59 | 158 | 0.0 | 4.0 | 0.00 | 0.00 | 0.00 | 36 | 1023.9 |
| 20260502221905 | 59 | 147 | 2.0 | 4.0 | 0.00 | 0.00 | 0.00 | 35 | 1023.5 |
| 20260502221803 | 59 | 153 | 0.0 | 4.0 | 0.00 | 0.00 | 0.00 | 35 | 1023.8 |
| 20260502221703 | 59 | 163 | 1.0 | 4.0 | 0.00 | 0.00 | 0.00 | 35 | 1023.7 |
| 20260502221603 | 59 | 136 | 1.0 | 4.0 | 0.00 | 0.00 | 0.00 | 35 | 1023.7 |
| 20260502221503 | 59 | 127 | 0.0 | 4.0 | 0.00 | 0.00 | 0.00 | 35 | 1023.7 |
| 20260502221409 | 59 | 113 | 2.0 | 4.0 | 0.00 | 0.00 | 0.00 | 34 | 1023.5 |
| 20260502221303 | 59 | 83 | 0.0 | 4.0 | 0.00 | 0.00 | 0.00 | 35 | 1023.6 |
| 20260502221204 | 59 | 83 | 0.0 | 4.0 | 0.00 | 0.00 | 0.00 | 35 | 1023.8 |
| 20260502221004 | 59 | 202 | 0.0 | 2.0 | 0.00 | 0.00 | 0.00 | 35 | 1023.6 |
| 20260502220905 | 59 | 176 | 0.0 | 2.0 | 0.00 | 0.00 | 0.00 | 35 | 1023.7 |
| 20260502220804 | 59 | 168 | 0.0 | 2.0 | 0.00 | 0.00 | 0.00 | 35 | 1023.6 |
| 20260502220704 | 59 | 170 | 0.0 | 2.0 | 0.00 | 0.00 | 0.00 | 34 | 1023.7 |
| 20260502220604 | 59 | 170 | 0.0 | 2.0 | 0.00 | 0.00 | 0.00 | 35 | 1023.7 |
| 20260502220519 | 59 | 167 | 0.0 | 2.0 | 0.00 | 0.00 | 0.00 | 34 | 1023.8 |
| 20260502220505 | 59 | 164 | 0.0 | 2.0 | 0.00 | 0.00 | 0.00 | 34 | 1023.8 |
| 20260502220404 | 59 | 163 | 0.0 | 2.0 | 0.00 | 0.00 | 0.00 | 34 | 1023.6 |
| 20260502220203 | 60 | 177 | 0.0 | 2.0 | 0.00 | 0.00 | 0.00 | 34 | 1023.4 |
| 20260502220119 | 60 | 175 | 1.0 | 2.0 | 0.00 | 0.00 | 0.00 | 34 | 1023.6 |
| 20260502220107 | 60 | 180 | 1.0 | 2.0 | 0.00 | 0.00 | 0.00 | 34 | 1023.6 |
| 20260502220017 | 60 | 202 | 0.0 | 2.0 | 0.00 | 0.00 | 0.00 | 35 | 1023.4 |
| 20260502215815 | 60 | 195 | 0.0 | 2.0 | 0.00 | 0.00 | 0.00 | 34 | 1023.6 |
| 20260502215713 | 60 | 170 | 0.0 | 2.0 | 0.00 | 0.00 | 0.00 | 34 | 1023.3 |
| 20260502215705 | 60 | 166 | 0.0 | 2.0 | 0.00 | 0.00 | 0.00 | 34 | 1023.3 |
| 20260502215617 | 60 | 175 | 0.0 | 2.0 | 0.00 | 0.00 | 0.00 | 34 | 1023.6 |
| 20260502215307 | 60 | 107 | 0.0 | 4.0 | 0.00 | 0.00 | 0.00 | 33 | 1023.5 |
| 20260502215203 | 60 | 102 | 0.0 | 4.0 | 0.00 | 0.00 | 0.00 | 33 | 1023.5 |
| 20260502215104 | 60 | 96 | 1.0 | 4.0 | 0.00 | 0.00 | 0.00 | 33 | 1023.4 |
| 20260502215005 | 60 | 90 | 0.0 | 4.0 | 0.00 | 0.00 | 0.00 | 33 | 1023.4 |
| 20260502214905 | 60 | 83 | 2.0 | 4.0 | 0.00 | 0.00 | 0.00 | 32 | 1023.6 |
| 20260502214815 | 60 | 80 | 2.0 | 4.0 | 0.00 | 0.00 | 0.00 | 32 | 1023.5 |
| 20260502214806 | 60 | 74 | 2.0 | 4.0 | 0.00 | 0.00 | 0.00 | 32 | 1023.5 |
| 20260502214704 | 60 | 84 | 0.0 | 4.0 | 0.00 | 0.00 | 0.00 | 32 | 1023.4 |
| 20260502214504 | 60 | 107 | 0.0 | 4.0 | 0.00 | 0.00 | 0.00 | 32 | 1023.4 |
| 20260502214415 | 60 | 122 | 0.0 | 4.0 | 0.00 | 0.00 | 0.00 | 32 | 1023.3 |
| 20260502214403 | 60 | 128 | 0.0 | 4.0 | 0.00 | 0.00 | 0.00 | 32 | 1023.3 |
| 20260502214303 | 60 | 155 | 0.0 | 4.0 | 0.00 | 0.00 | 0.00 | 32 | 1023.5 |
| 20260502214103 | 60 | 171 | 2.0 | 4.0 | 0.00 | 0.00 | 0.00 | 32 | 1023.2 |
| 20260502214004 | 60 | 172 | 1.0 | 4.0 | 0.00 | 0.00 | 0.00 | 32 | 1023.4 |
| 20260502213905 | 60 | 178 | 2.0 | 4.0 | 0.00 | 0.00 | 0.00 | 32 | 1023.4 |
| 20260502213804 | 60 | 172 | 2.0 | 4.0 | 0.00 | 0.00 | 0.00 | 32 | 1023.2 |
| 20260502213705 | 60 | 169 | 2.0 | 4.0 | 0.00 | 0.00 | 0.00 | 32 | 1023.4 |
| 20260502213504 | 60 | 183 | 1.0 | 4.0 | 0.00 | 0.00 | 0.00 | 32 | 1023.3 |
| 20260502213403 | 60 | 149 | 0.0 | 4.0 | 0.00 | 0.00 | 0.00 | 33 | 1023.2 |
| 20260502213303 | 61 | 114 | 0.0 | 4.0 | 0.00 | 0.00 | 0.00 | 33 | 1023.1 |
| 20260502213203 | 61 | 120 | 0.0 | 4.0 | 0.00 | 0.00 | 0.00 | 33 | 1023.3 |
| 20260502213104 | 61 | 114 | 1.0 | 4.0 | 0.00 | 0.00 | 0.00 | 32 | 1023.0 |
| 20260502213005 | 61 | 104 | 1.0 | 4.0 | 0.00 | 0.00 | 0.00 | 32 | 1023.3 |
| 20260502212903 | 61 | 103 | 2.0 | 4.0 | 0.00 | 0.00 | 0.00 | 32 | 1023.1 |
| 20260502212803 | 61 | 111 | 2.0 | 4.0 | 0.00 | 0.00 | 0.00 | 31 | 1023.2 |
| 20260502212703 | 61 | 91 | 0.0 | 4.0 | 0.00 | 0.00 | 0.00 | 32 | 1023.2 |
| 20260502212605 | 61 | 88 | 1.0 | 4.0 | 0.00 | 0.00 | 0.00 | 32 | 1023.1 |
| 20260502212504 | 61 | 89 | 2.0 | 4.0 | 0.00 | 0.00 | 0.00 | 32 | 1023.2 |
| 20260502212417 | 61 | 91 | 0.0 | 4.0 | 0.00 | 0.00 | 0.00 | 32 | 1023.2 |
| 20260502212305 | 61 | 101 | 1.0 | 4.0 | 0.00 | 0.00 | 0.00 | 31 | 1023.0 |
| 20260502212104 | 61 | 124 | 2.0 | 4.0 | 0.00 | 0.00 | 0.00 | 31 | 1023.2 |
| 20260502212004 | 62 | 134 | 2.0 | 4.0 | 0.00 | 0.00 | 0.00 | 31 | 1023.0 |
| 20260502211904 | 62 | 163 | 2.0 | 4.0 | 0.00 | 0.00 | 0.00 | 30 | 1023.0 |
| 20260502211804 | 62 | 159 | 2.0 | 4.0 | 0.00 | 0.00 | 0.00 | 31 | 1023.3 |
| 20260502211706 | 62 | 140 | 1.0 | 4.0 | 0.00 | 0.00 | 0.00 | 31 | 1023.2 |
| 20260502211604 | 62 | 146 | 0.0 | 4.0 | 0.00 | 0.00 | 0.00 | 31 | 1023.4 |
| 20260502211504 | 62 | 139 | 2.0 | 4.0 | 0.00 | 0.00 | 0.00 | 31 | 1023.3 |
| 20260502211405 | 62 | 114 | 2.0 | 4.0 | 0.00 | 0.00 | 0.00 | 31 | 1023.2 |
| 20260502211304 | 62 | 109 | 1.0 | 4.0 | 0.00 | 0.00 | 0.00 | 31 | 1023.2 |
| 20260502211204 | 62 | 261 | 1.0 | 4.0 | 0.00 | 0.00 | 0.00 | 31 | 1023.1 |
| 20260502211105 | 62 | 258 | 2.0 | 4.0 | 0.00 | 0.00 | 0.00 | 31 | 1023.1 |
| 20260502211004 | 63 | 220 | 0.0 | 7.0 | 0.00 | 0.00 | 0.00 | 33 | 1023.1 |
| 20260502210904 | 62 | 167 | 0.0 | 7.0 | 0.00 | 0.00 | 0.00 | 31 | 1023.0 |
| 20260502210804 | 62 | 168 | 1.0 | 7.0 | 0.00 | 0.00 | 0.00 | 31 | 1023.0 |
| 20260502210707 | 62 | 151 | 1.0 | 7.0 | 0.00 | 0.00 | 0.00 | 30 | 1023.1 |
| 20260502210605 | 62 | 127 | 1.0 | 8.0 | 0.00 | 0.00 | 0.00 | 30 | 1023.1 |
| 20260502210515 | 62 | 141 | 1.0 | 11.0 | 0.00 | 0.00 | 0.00 | 30 | 1023.2 |
| 20260502210504 | 62 | 137 | 1.0 | 11.0 | 0.00 | 0.00 | 0.00 | 30 | 1023.2 |
| 20260502210405 | 62 | 122 | 1.0 | 11.0 | 0.00 | 0.00 | 0.00 | 31 | 1023.1 |
| 20260502210204 | 62 | 110 | 2.0 | 11.0 | 0.00 | 0.00 | 0.00 | 30 | 1023.0 |
| 20260502210106 | 62 | 104 | 2.0 | 11.0 | 0.00 | 0.00 | 0.00 | 30 | 1022.8 |
| 20260502210004 | 63 | 101 | 4.0 | 11.0 | 0.00 | 0.00 | 0.00 | 30 | 1023.0 |
| 20260502205904 | 63 | 119 | 2.0 | 8.0 | 0.00 | 0.00 | 0.00 | 30 | 1023.2 |
| 20260502205805 | 63 | 153 | 2.0 | 8.0 | 0.00 | 0.00 | 0.00 | 30 | 1023.1 |
| 20260502205703 | 63 | 137 | 2.0 | 8.0 | 0.00 | 0.00 | 0.00 | 30 | 1023.1 |
| 20260502205605 | 63 | 148 | 0.0 | 8.0 | 0.00 | 0.00 | 0.00 | 30 | 1023.1 |
| 20260502205505 | 63 | 140 | 2.0 | 8.0 | 0.00 | 0.00 | 0.00 | 30 | 1023.0 |
| 20260502205406 | 63 | 149 | 3.0 | 8.0 | 0.00 | 0.00 | 0.00 | 30 | 1023.0 |
| 20260502205313 | 64 | 152 | 1.0 | 6.0 | 0.00 | 0.00 | 0.00 | 30 | 1023.0 |
| 20260502205305 | 64 | 156 | 1.0 | 6.0 | 0.00 | 0.00 | 0.00 | 30 | 1023.0 |
| 20260502205003 | 64 | 134 | 1.0 | 4.0 | 0.00 | 0.00 | 0.00 | 31 | 1023.1 |
| 20260502204904 | 64 | 67 | 1.0 | 4.0 | 0.00 | 0.00 | 0.00 | 30 | 1023.0 |
| 20260502204704 | 64 | 45 | 2.0 | 7.0 | 0.00 | 0.00 | 0.00 | 30 | 1022.9 |
| 20260502204603 | 64 | 58 | 0.0 | 7.0 | 0.00 | 0.00 | 0.00 | 30 | 1023.0 |
| 20260502204517 | 64 | 86 | 0.0 | 9.0 | 0.00 | 0.00 | 0.00 | 30 | 1022.8 |
| 20260502204505 | 64 | 96 | 0.0 | 9.0 | 0.00 | 0.00 | 0.00 | 30 | 1022.8 |
| 20260502204405 | 64 | 92 | 0.0 | 11.0 | 0.00 | 0.00 | 0.00 | 29 | 1022.8 |
| 20260502204203 | 64 | 100 | 2.0 | 11.0 | 0.00 | 0.00 | 0.00 | 29 | 1023.1 |
| 20260502204104 | 64 | 109 | 2.0 | 11.0 | 0.00 | 0.00 | 0.00 | 29 | 1023.0 |
| 20260502204005 | 64 | 102 | 4.0 | 11.0 | 0.00 | 0.00 | 0.00 | 29 | 1022.8 |
| 20260502203905 | 64 | 106 | 4.0 | 11.0 | 0.00 | 0.00 | 0.00 | 29 | 1022.7 |
| 20260502203805 | 64 | 113 | 4.0 | 9.0 | 0.00 | 0.00 | 0.00 | 29 | 1022.6 |
| 20260502203721 | 64 | 95 | 4.0 | 9.0 | 0.00 | 0.00 | 0.00 | 29 | 1023.0 |
| 20260502203705 | 64 | 90 | 4.0 | 9.0 | 0.00 | 0.00 | 0.00 | 29 | 1023.0 |
| 20260502203603 | 64 | 68 | 4.0 | 9.0 | 0.00 | 0.00 | 0.00 | 29 | 1022.8 |
| 20260502203406 | 64 | 57 | 2.0 | 9.0 | 0.00 | 0.00 | 0.00 | 30 | 1022.9 |
| 20260502203303 | 64 | 60 | 5.0 | 9.0 | 0.00 | 0.00 | 0.00 | 29 | 1022.8 |
| 20260502203117 | 64 | 98 | 3.0 | 11.0 | 0.00 | 0.00 | 0.00 | 30 | 1022.7 |
| 20260502203103 | 64 | 102 | 2.0 | 11.0 | 0.00 | 0.00 | 0.00 | 30 | 1023.0 |
| 20260502203004 | 64 | 103 | 1.0 | 11.0 | 0.00 | 0.00 | 0.00 | 31 | 1022.9 |
| 20260502202803 | 64 | 95 | 2.0 | 11.0 | 0.00 | 0.00 | 0.00 | 30 | 1022.8 |
| 20260502202705 | 64 | 86 | 4.0 | 11.0 | 0.00 | 0.00 | 0.00 | 30 | 1022.5 |
| 20260502202604 | 65 | 90 | 2.0 | 8.0 | 0.00 | 0.00 | 0.00 | 31 | 1022.7 |
| 20260502202504 | 65 | 94 | 3.0 | 8.0 | 0.00 | 0.00 | 0.00 | 31 | 1022.7 |
| 20260502202305 | 65 | 158 | 2.0 | 8.0 | 0.00 | 0.00 | 0.00 | 31 | 1022.6 |
| 20260502202205 | 65 | 163 | 1.0 | 8.0 | 0.00 | 0.00 | 0.00 | 31 | 1022.6 |
| 20260502202104 | 65 | 183 | 1.0 | 8.0 | 0.00 | 0.00 | 0.00 | 31 | 1022.6 |
| 20260502202017 | 65 | 186 | 0.0 | 8.0 | 0.00 | 0.00 | 0.00 | 31 | 1022.7 |
| 20260502202004 | 65 | 183 | 0.0 | 8.0 | 0.00 | 0.00 | 0.00 | 31 | 1022.7 |
| 20260502201903 | 64 | 170 | 4.0 | 8.0 | 0.00 | 0.00 | 0.00 | 30 | 1022.6 |
| 20260502201717 | 64 | 172 | 4.0 | 8.0 | 0.00 | 0.00 | 0.00 | 31 | 1022.8 |
| 20260502201704 | 64 | 170 | 4.0 | 8.0 | 0.00 | 0.00 | 0.00 | 31 | 1022.8 |
| 20260502201616 | 64 | 155 | 3.0 | 8.0 | 0.00 | 0.00 | 0.00 | 31 | 1022.7 |
| 20260502201607 | 64 | 144 | 3.0 | 8.0 | 0.00 | 0.00 | 0.00 | 31 | 1022.7 |
| 20260502201413 | 65 | 139 | 1.0 | 7.0 | 0.00 | 0.00 | 0.00 | 30 | 1022.6 |
| 20260502201305 | 65 | 126 | 2.0 | 7.0 | 0.00 | 0.00 | 0.00 | 30 | 1022.7 |
| 20260502201104 | 65 | 104 | 1.0 | 7.0 | 0.00 | 0.00 | 0.00 | 30 | 1022.4 |
| 20260502201004 | 65 | 83 | 2.0 | 7.0 | 0.00 | 0.00 | 0.00 | 30 | 1022.7 |
| 20260502200904 | 65 | 73 | 3.0 | 7.0 | 0.00 | 0.00 | 0.00 | 29 | 1022.7 |
| 20260502200815 | 65 | 95 | 2.0 | 9.0 | 0.00 | 0.00 | 0.00 | 29 | 1022.7 |
| 20260502200804 | 65 | 120 | 2.0 | 9.0 | 0.00 | 0.00 | 0.00 | 29 | 1022.7 |
| 20260502200704 | 65 | 128 | 2.0 | 9.0 | 0.00 | 0.00 | 0.00 | 29 | 1022.5 |
| 20260502200505 | 65 | 173 | 0.0 | 9.0 | 0.00 | 0.00 | 0.00 | 29 | 1022.9 |
| 20260502200419 | 65 | 181 | 1.0 | 9.0 | 0.00 | 0.00 | 0.00 | 29 | 1022.5 |
| 20260502200404 | 65 | 188 | 1.0 | 9.0 | 0.00 | 0.00 | 0.00 | 29 | 1022.5 |
| 20260502200303 | 65 | 202 | 3.0 | 7.0 | 0.00 | 0.00 | 0.00 | 29 | 1022.8 |